Wetterdaten: Mittwoch, 03.06.2015
Datum Zeit Temp. Aussen +5cm Feuchte Auss BlattFeu 1 Luftdruck Regen Sonnenschein Regendauer Solar Windben
03.06.2015 00:00 18,7 C 15,6 C 78 % 0 lf 1013,3 hPa 0,0 l/m 0 min 0 min 0 W/m 10,5 km/h (2 Bft)
03.06.2015 00:02 18,7 C 15,6 C 78 % 0 lf 1013,3 hPa 0,0 l/m 0 min 0 min 0 W/m 16,7 km/h (3 Bft)
03.06.2015 00:05 18,6 C 15,6 C 78 % 0 lf 1013,3 hPa 0,0 l/m 0 min 0 min 0 W/m 18,8 km/h (3 Bft)
03.06.2015 00:06 18,6 C 15,6 C 78 % 0 lf 1013,3 hPa 0,0 l/m 0 min 0 min 0 W/m 12,6 km/h (3 Bft)
03.06.2015 00:08 18,6 C 15,6 C 78 % 0 lf 1013,3 hPa 0,0 l/m 0 min 0 min 0 W/m 16,7 km/h (3 Bft)
03.06.2015 00:10 18,6 C 15,6 C 78 % 0 lf 1013,3 hPa 0,0 l/m 0 min 0 min 0 W/m 18,8 km/h (3 Bft)
03.06.2015 00:12 18,6 C 15,6 C 78 % 0 lf 1013,3 hPa 0,0 l/m 0 min 0 min 0 W/m 23,0 km/h (4 Bft)
03.06.2015 00:14 18,5 C 15,6 C 78 % 0 lf 1013,3 hPa 0,0 l/m 0 min 0 min 0 W/m 16,7 km/h (3 Bft)
03.06.2015 00:16 18,5 C 15,6 C 78 % 0 lf 1013,4 hPa 0,0 l/m 0 min 0 min 0 W/m 18,8 km/h (3 Bft)
03.06.2015 00:18 18,5 C 15,6 C 78 % 0 lf 1013,3 hPa 0,0 l/m 0 min 0 min 0 W/m 20,9 km/h (4 Bft)
03.06.2015 00:20 18,4 C 15,6 C 78 % 0 lf 1013,3 hPa 0,0 l/m 0 min 0 min 0 W/m 16,7 km/h (3 Bft)
03.06.2015 00:22 18,4 C 15,6 C 78 % 0 lf 1013,3 hPa 0,0 l/m 0 min 0 min 0 W/m 23,0 km/h (4 Bft)
03.06.2015 00:24 18,4 C 15,6 C 78 % 0 lf 1013,2 hPa 0,0 l/m 0 min 0 min 0 W/m 25,1 km/h (4 Bft)
03.06.2015 00:26 18,4 C 15,6 C 78 % 0 lf 1013,3 hPa 0,0 l/m 0 min 0 min 0 W/m 23,0 km/h (4 Bft)
03.06.2015 00:28 18,4 C 15,6 C 78 % 0 lf 1013,3 hPa 0,0 l/m 0 min 0 min 0 W/m 23,0 km/h (4 Bft)
03.06.2015 00:30 18,4 C 15,6 C 78 % 0 lf 1013,3 hPa 0,0 l/m 0 min 0 min 0 W/m 29,3 km/h (5 Bft)
03.06.2015 00:32 18,4 C 15,6 C 78 % 0 lf 1013,4 hPa 0,0 l/m 0 min 0 min 0 W/m 25,1 km/h (4 Bft)
03.06.2015 00:34 18,4 C 15,6 C 78 % 0 lf 1013,3 hPa 0,0 l/m 0 min 0 min 0 W/m 25,1 km/h (4 Bft)
03.06.2015 00:36 18,4 C 15,6 C 78 % 0 lf 1013,3 hPa 0,0 l/m 0 min 0 min 0 W/m 23,0 km/h (4 Bft)
03.06.2015 00:38 18,4 C 15,6 C 78 % 0 lf 1013,3 hPa 0,0 l/m 0 min 0 min 0 W/m 20,9 km/h (4 Bft)
03.06.2015 00:40 18,4 C 15,6 C 78 % 0 lf 1013,3 hPa 0,0 l/m 0 min 0 min 0 W/m 23,0 km/h (4 Bft)
03.06.2015 00:42 18,4 C 15,6 C 78 % 0 lf 1013,4 hPa 0,0 l/m 0 min 0 min 0 W/m 23,0 km/h (4 Bft)
03.06.2015 00:44 18,4 C 15,6 C 78 % 0 lf 1013,4 hPa 0,0 l/m 0 min 0 min 0 W/m 20,9 km/h (4 Bft)
03.06.2015 00:46 18,4 C 15,6 C 78 % 0 lf 1013,4 hPa 0,0 l/m 0 min 0 min 0 W/m 23,0 km/h (4 Bft)
03.06.2015 00:48 18,4 C 15,6 C 78 % 0 lf 1013,5 hPa 0,0 l/m 0 min 0 min 0 W/m 23,0 km/h (4 Bft)
03.06.2015 00:50 18,4 C 15,6 C 78 % 0 lf 1013,5 hPa 0,0 l/m 0 min 0 min 0 W/m 20,9 km/h (4 Bft)
03.06.2015 00:52 18,4 C 15,6 C 78 % 0 lf 1013,4 hPa 0,0 l/m 0 min 0 min 0 W/m 23,0 km/h (4 Bft)
03.06.2015 00:54 18,4 C 15,6 C 78 % 0 lf 1013,4 hPa 0,0 l/m 0 min 0 min 0 W/m 20,9 km/h (4 Bft)
03.06.2015 00:56 18,4 C 15,6 C 78 % 0 lf 1013,4 hPa 0,0 l/m 0 min 0 min 0 W/m 23,0 km/h (4 Bft)
03.06.2015 00:58 18,4 C 15,6 C 78 % 0 lf 1013,6 hPa 0,0 l/m 0 min 0 min 0 W/m 29,3 km/h (5 Bft)
03.06.2015 01:00 18,4 C 15,6 C 78 % 0 lf 1013,5 hPa 0,0 l/m 0 min 0 min 0 W/m 23,0 km/h (4 Bft)
03.06.2015 01:02 18,4 C 15,6 C 78 % 0 lf 1013,5 hPa 0,0 l/m 0 min 0 min 0 W/m 27,2 km/h (4 Bft)
03.06.2015 01:04 18,4 C 15,6 C 78 % 0 lf 1013,5 hPa 0,0 l/m 0 min 0 min 0 W/m 25,1 km/h (4 Bft)
03.06.2015 01:06 18,4 C 15,6 C 78 % 0 lf 1013,5 hPa 0,0 l/m 0 min 0 min 0 W/m 29,3 km/h (5 Bft)
03.06.2015 01:08 18,5 C 15,6 C 77 % 0 lf 1013,4 hPa 0,0 l/m 0 min 0 min 0 W/m 23,0 km/h (4 Bft)
03.06.2015 01:10 18,5 C 15,6 C 77 % 0 lf 1013,5 hPa 0,0 l/m 0 min 0 min 0 W/m 20,9 km/h (4 Bft)
03.06.2015 01:12 18,5 C 15,6 C 77 % 0 lf 1013,4 hPa 0,0 l/m 0 min 0 min 0 W/m 25,1 km/h (4 Bft)
03.06.2015 01:14 18,5 C 15,6 C 77 % 0 lf 1013,4 hPa 0,0 l/m 0 min 0 min 0 W/m 27,2 km/h (4 Bft)
03.06.2015 01:16 18,5 C 15,6 C 77 % 0 lf 1013,5 hPa 0,0 l/m 0 min 0 min 0 W/m 27,2 km/h (4 Bft)
03.06.2015 01:18 18,5 C 15,6 C 77 % 0 lf 1013,5 hPa 0,0 l/m 0 min 0 min 0 W/m 20,9 km/h (4 Bft)
03.06.2015 01:20 18,5 C 15,6 C 77 % 0 lf 1013,6 hPa 0,0 l/m 0 min 0 min 0 W/m 23,0 km/h (4 Bft)
03.06.2015 01:22 18,5 C 15,6 C 76 % 0 lf 1013,6 hPa 0,0 l/m 0 min 0 min 0 W/m 29,3 km/h (5 Bft)
03.06.2015 01:24 18,5 C 15,6 C 76 % 0 lf 1013,7 hPa 0,0 l/m 0 min 0 min 0 W/m 25,1 km/h (4 Bft)
03.06.2015 01:26 18,5 C 15,6 C 76 % 0 lf 1013,6 hPa 0,0 l/m 0 min 0 min 0 W/m 20,9 km/h (4 Bft)
03.06.2015 01:28 18,5 C 15,6 C 76 % 0 lf 1013,7 hPa 0,0 l/m 0 min 0 min 0 W/m 27,2 km/h (4 Bft)
03.06.2015 01:30 18,5 C 15,6 C 76 % 0 lf 1013,7 hPa 0,0 l/m 0 min 0 min 0 W/m 33,5 km/h (5 Bft)
03.06.2015 01:32 18,5 C 15,6 C 76 % 0 lf 1013,7 hPa 0,0 l/m 0 min 0 min 0 W/m 29,3 km/h (5 Bft)
03.06.2015 01:34 18,5 C 15,6 C 76 % 0 lf 1013,6 hPa 0,0 l/m 0 min 0 min 0 W/m 25,1 km/h (4 Bft)
03.06.2015 01:36 18,5 C 15,6 C 76 % 0 lf 1013,6 hPa 0,0 l/m 0 min 0 min 0 W/m 20,9 km/h (4 Bft)
03.06.2015 01:38 18,5 C 15,6 C 76 % 0 lf 1013,6 hPa 0,0 l/m 0 min 0 min 0 W/m 20,9 km/h (4 Bft)
03.06.2015 01:40 18,5 C 15,6 C 76 % 0 lf 1013,6 hPa 0,0 l/m 0 min 0 min 0 W/m 33,5 km/h (5 Bft)
03.06.2015 01:42 18,6 C 15,6 C 76 % 0 lf 1013,5 hPa 0,0 l/m 0 min 0 min 0 W/m 25,1 km/h (4 Bft)
03.06.2015 01:44 18,5 C 15,6 C 76 % 0 lf 1013,5 hPa 0,0 l/m 0 min 0 min 0 W/m 33,5 km/h (5 Bft)
03.06.2015 01:46 18,5 C 15,6 C 76 % 0 lf 1013,6 hPa 0,0 l/m 0 min 0 min 0 W/m 29,3 km/h (5 Bft)
03.06.2015 01:48 18,6 C 15,6 C 76 % 0 lf 1013,5 hPa 0,0 l/m 0 min 0 min 0 W/m 41,8 km/h (6 Bft)
03.06.2015 01:50 18,6 C 15,6 C 76 % 0 lf 1013,5 hPa 0,0 l/m 0 min 0 min 0 W/m 39,7 km/h (6 Bft)
03.06.2015 01:52 18,6 C 15,6 C 76 % 0 lf 1013,5 hPa 0,0 l/m 0 min 0 min 0 W/m 33,5 km/h (5 Bft)
03.06.2015 01:54 18,6 C 15,6 C 76 % 0 lf 1013,6 hPa 0,0 l/m 0 min 0 min 0 W/m 35,6 km/h (5 Bft)
03.06.2015 01:56 18,6 C 15,6 C 75 % 0 lf 1013,6 hPa 0,0 l/m 0 min 0 min 0 W/m 29,3 km/h (5 Bft)
03.06.2015 01:58 18,6 C 15,6 C 75 % 0 lf 1013,5 hPa 0,0 l/m 0 min 0 min 0 W/m 33,5 km/h (5 Bft)
03.06.2015 02:00 18,6 C 15,6 C 75 % 0 lf 1013,5 hPa 0,0 l/m 0 min 0 min 0 W/m 31,4 km/h (5 Bft)
03.06.2015 02:02 18,6 C 15,6 C 75 % 0 lf 1013,5 hPa 0,0 l/m 0 min 0 min 0 W/m 35,6 km/h (5 Bft)
03.06.2015 02:04 18,7 C 15,6 C 75 % 0 lf 1013,5 hPa 0,0 l/m 0 min 0 min 0 W/m 29,3 km/h (5 Bft)
03.06.2015 02:06 18,7 C 15,6 C 75 % 0 lf 1013,6 hPa 0,0 l/m 0 min 0 min 0 W/m 27,2 km/h (4 Bft)
03.06.2015 02:08 18,7 C 15,6 C 75 % 0 lf 1013,6 hPa 0,0 l/m 0 min 0 min 0 W/m 35,6 km/h (5 Bft)
03.06.2015 02:10 18,7 C 15,6 C 75 % 0 lf 1013,6 hPa 0,0 l/m 0 min 0 min 0 W/m 23,0 km/h (4 Bft)
03.06.2015 02:12 18,7 C 15,6 C 75 % 0 lf 1013,6 hPa 0,0 l/m 0 min 0 min 0 W/m 18,8 km/h (3 Bft)
03.06.2015 02:14 18,7 C 15,6 C 75 % 0 lf 1013,6 hPa 0,0 l/m 0 min 0 min 0 W/m 20,9 km/h (4 Bft)
03.06.2015 02:16 18,7 C 15,6 C 75 % 0 lf 1013,6 hPa 0,0 l/m 0 min 0 min 0 W/m 25,1 km/h (4 Bft)
03.06.2015 02:18 18,7 C 15,6 C 75 % 0 lf 1013,5 hPa 0,0 l/m 0 min 0 min 0 W/m 16,7 km/h (3 Bft)
03.06.2015 02:20 18,6 C 15,6 C 75 % 0 lf 1013,6 hPa 0,0 l/m 0 min 0 min 0 W/m 23,0 km/h (4 Bft)
03.06.2015 02:22 18,6 C 15,6 C 75 % 0 lf 1013,7 hPa 0,0 l/m 0 min 0 min 0 W/m 31,4 km/h (5 Bft)
03.06.2015 02:24 18,6 C 15,6 C 75 % 0 lf 1013,7 hPa 0,0 l/m 0 min 0 min 0 W/m 27,2 km/h (4 Bft)
03.06.2015 02:26 18,6 C 15,6 C 75 % 0 lf 1013,6 hPa 0,0 l/m 0 min 0 min 0 W/m 14,6 km/h (3 Bft)
03.06.2015 02:28 18,6 C 15,6 C 75 % 0 lf 1013,7 hPa 0,0 l/m 0 min 0 min 0 W/m 23,0 km/h (4 Bft)
03.06.2015 02:30 18,6 C 15,6 C 75 % 0 lf 1013,7 hPa 0,0 l/m 0 min 0 min 0 W/m 20,9 km/h (4 Bft)
03.06.2015 02:32 18,6 C 15,6 C 75 % 0 lf 1013,6 hPa 0,0 l/m 0 min 0 min 0 W/m 37,7 km/h (5 Bft)
03.06.2015 02:34 18,5 C 15,6 C 75 % 0 lf 1013,6 hPa 0,0 l/m 0 min 0 min 0 W/m 27,2 km/h (4 Bft)
03.06.2015 02:36 18,5 C 15,6 C 75 % 0 lf 1013,7 hPa 0,0 l/m 0 min 0 min 0 W/m 20,9 km/h (4 Bft)
03.06.2015 02:38 18,5 C 15,6 C 75 % 0 lf 1013,6 hPa 0,0 l/m 0 min 0 min 0 W/m 23,0 km/h (4 Bft)
03.06.2015 02:40 18,4 C 15,6 C 75 % 0 lf 1013,7 hPa 0,0 l/m 0 min 0 min 0 W/m 27,2 km/h (4 Bft)
03.06.2015 02:42 18,4 C 15,6 C 75 % 0 lf 1013,7 hPa 0,0 l/m 0 min 0 min 0 W/m 29,3 km/h (5 Bft)
03.06.2015 02:44 18,4 C 15,6 C 75 % 0 lf 1013,7 hPa 0,0 l/m 0 min 0 min 0 W/m 27,2 km/h (4 Bft)
03.06.2015 02:46 18,4 C 15,6 C 75 % 0 lf 1013,6 hPa 0,0 l/m 0 min 0 min 0 W/m 20,9 km/h (4 Bft)
03.06.2015 02:48 18,4 C 15,6 C 75 % 0 lf 1013,7 hPa 0,0 l/m 0 min 0 min 0 W/m 20,9 km/h (4 Bft)
03.06.2015 02:50 18,4 C 15,6 C 76 % 0 lf 1013,7 hPa 0,0 l/m 0 min 0 min 0 W/m 33,5 km/h (5 Bft)
03.06.2015 02:52 18,4 C 15,6 C 75 % 0 lf 1013,7 hPa 0,0 l/m 0 min 0 min 0 W/m 23,0 km/h (4 Bft)
03.06.2015 02:54 18,4 C 15,6 C 75 % 0 lf 1013,7 hPa 0,0 l/m 0 min 0 min 0 W/m 31,4 km/h (5 Bft)
03.06.2015 02:56 18,4 C 15,6 C 76 % 0 lf 1013,7 hPa 0,0 l/m 0 min 0 min 0 W/m 29,3 km/h (5 Bft)
03.06.2015 02:58 18,4 C 15,6 C 76 % 0 lf 1013,7 hPa 0,0 l/m 0 min 0 min 0 W/m 25,1 km/h (4 Bft)
03.06.2015 03:00 18,4 C 15,6 C 75 % 0 lf 1013,7 hPa 0,0 l/m 0 min 0 min 0 W/m 25,1 km/h (4 Bft)
03.06.2015 03:02 18,4 C 15,6 C 75 % 0 lf 1013,8 hPa 0,0 l/m 0 min 0 min 0 W/m 25,1 km/h (4 Bft)
03.06.2015 03:04 18,4 C 15,6 C 75 % 0 lf 1013,8 hPa 0,0 l/m 0 min 0 min 0 W/m 20,9 km/h (4 Bft)
03.06.2015 03:06 18,4 C 15,6 C 75 % 0 lf 1013,9 hPa 0,0 l/m 0 min 0 min 0 W/m 33,5 km/h (5 Bft)
03.06.2015 03:08 18,4 C 15,6 C 76 % 0 lf 1013,8 hPa 0,0 l/m 0 min 0 min 0 W/m 25,1 km/h (4 Bft)
03.06.2015 03:10 18,4 C 15,6 C 75 % 0 lf 1013,9 hPa 0,0 l/m 0 min 0 min 0 W/m 29,3 km/h (5 Bft)
03.06.2015 03:12 18,4 C 15,6 C 75 % 0 lf 1013,9 hPa 0,0 l/m 0 min 0 min 0 W/m 27,2 km/h (4 Bft)
03.06.2015 03:14 18,4 C 15,6 C 75 % 0 lf 1013,9 hPa 0,0 l/m 0 min 0 min 0 W/m 27,2 km/h (4 Bft)
03.06.2015 03:16 18,4 C 15,6 C 75 % 0 lf 1013,9 hPa 0,0 l/m 0 min 0 min 0 W/m 25,1 km/h (4 Bft)
03.06.2015 03:18 18,4 C 15,6 C 75 % 0 lf 1013,9 hPa 0,0 l/m 0 min 0 min 0 W/m 27,2 km/h (4 Bft)
03.06.2015 03:20 18,4 C 15,6 C 75 % 0 lf 1014,1 hPa 0,0 l/m 0 min 0 min 0 W/m 35,6 km/h (5 Bft)
03.06.2015 03:22 18,4 C 15,6 C 75 % 0 lf 1014,0 hPa 0,0 l/m 0 min 0 min 0 W/m 20,9 km/h (4 Bft)
03.06.2015 03:24 18,4 C 15,6 C 75 % 0 lf 1013,9 hPa 0,0 l/m 0 min 0 min 0 W/m 27,2 km/h (4 Bft)
03.06.2015 03:26 18,4 C 15,6 C 75 % 0 lf 1014,0 hPa 0,0 l/m 0 min 0 min 0 W/m 27,2 km/h (4 Bft)
03.06.2015 03:28 18,4 C 15,6 C 76 % 0 lf 1014,0 hPa 0,0 l/m 0 min 0 min 0 W/m 25,1 km/h (4 Bft)
03.06.2015 03:30 18,4 C 15,6 C 75 % 0 lf 1014,0 hPa 0,0 l/m 0 min 0 min 0 W/m 20,9 km/h (4 Bft)
03.06.2015 03:32 18,4 C 15,6 C 75 % 0 lf 1014,0 hPa 0,0 l/m 0 min 0 min 0 W/m 18,8 km/h (3 Bft)
03.06.2015 03:34 18,4 C 15,6 C 76 % 0 lf 1014,0 hPa 0,0 l/m 0 min 0 min 0 W/m 14,6 km/h (3 Bft)
03.06.2015 03:36 18,4 C 15,6 C 76 % 0 lf 1014,0 hPa 0,0 l/m 0 min 0 min 0 W/m 23,0 km/h (4 Bft)
03.06.2015 03:38 18,4 C 15,6 C 76 % 0 lf 1014,1 hPa 0,0 l/m 0 min 0 min 0 W/m 18,8 km/h (3 Bft)
03.06.2015 03:40 18,4 C 15,6 C 76 % 0 lf 1014,0 hPa 0,0 l/m 0 min 0 min 0 W/m 14,6 km/h (3 Bft)
03.06.2015 03:42 18,3 C 15,6 C 76 % 0 lf 1014,1 hPa 0,0 l/m 0 min 0 min 0 W/m 23,0 km/h (4 Bft)
03.06.2015 03:44 18,3 C 15,6 C 76 % 0 lf 1014,1 hPa 0,0 l/m 0 min 0 min 0 W/m 27,2 km/h (4 Bft)
03.06.2015 03:46 18,3 C 15,6 C 76 % 0 lf 1014,0 hPa 0,0 l/m 0 min 0 min 0 W/m 23,0 km/h (4 Bft)
03.06.2015 03:48 18,3 C 15,6 C 76 % 0 lf 1014,1 hPa 0,0 l/m 0 min 0 min 0 W/m 14,6 km/h (3 Bft)
03.06.2015 03:50 18,3 C 15,6 C 76 % 0 lf 1014,1 hPa 0,0 l/m 0 min 0 min 0 W/m 20,9 km/h (4 Bft)
03.06.2015 03:52 18,3 C 15,6 C 76 % 0 lf 1014,1 hPa 0,0 l/m 0 min 0 min 0 W/m 25,1 km/h (4 Bft)
03.06.2015 03:54 18,3 C 15,6 C 76 % 0 lf 1014,2 hPa 0,0 l/m 0 min 0 min 0 W/m 25,1 km/h (4 Bft)
03.06.2015 03:56 18,3 C 15,6 C 76 % 0 lf 1014,2 hPa 0,0 l/m 0 min 0 min 0 W/m 25,1 km/h (4 Bft)
03.06.2015 03:58 18,2 C 15,6 C 77 % 0 lf 1014,3 hPa 0,0 l/m 0 min 0 min 0 W/m 23,0 km/h (4 Bft)
03.06.2015 04:00 18,2 C 15,6 C 77 % 0 lf 1014,2 hPa 0,0 l/m 0 min 0 min 0 W/m 16,7 km/h (3 Bft)
03.06.2015 04:02 18,2 C 15,6 C 77 % 0 lf 1014,2 hPa 0,0 l/m 0 min 0 min 0 W/m 20,9 km/h (4 Bft)
03.06.2015 04:04 18,2 C 15,6 C 77 % 0 lf 1014,3 hPa 0,0 l/m 0 min 0 min 0 W/m 20,9 km/h (4 Bft)
03.06.2015 04:06 18,2 C 15,6 C 77 % 0 lf 1014,2 hPa 0,0 l/m 0 min 0 min 0 W/m 16,7 km/h (3 Bft)
03.06.2015 04:08 18,2 C 15,6 C 77 % 0 lf 1014,3 hPa 0,0 l/m 0 min 0 min 0 W/m 16,7 km/h (3 Bft)
03.06.2015 04:10 18,2 C 15,6 C 77 % 0 lf 1014,3 hPa 0,0 l/m 0 min 0 min 0 W/m 18,8 km/h (3 Bft)
03.06.2015 04:12 18,1 C 15,6 C 77 % 0 lf 1014,3 hPa 0,0 l/m 0 min 0 min 0 W/m 33,5 km/h (5 Bft)
03.06.2015 04:14 18,1 C 15,6 C 77 % 0 lf 1014,3 hPa 0,0 l/m 0 min 0 min 0 W/m 20,9 km/h (4 Bft)
03.06.2015 04:16 18,1 C 15,6 C 77 % 0 lf 1014,3 hPa 0,0 l/m 0 min 0 min 0 W/m 20,9 km/h (4 Bft)
03.06.2015 04:18 18,1 C 15,0 C 77 % 0 lf 1014,3 hPa 0,0 l/m 0 min 0 min 0 W/m 27,2 km/h (4 Bft)
03.06.2015 04:20 18,1 C 15,0 C 77 % 0 lf 1014,3 hPa 0,0 l/m 0 min 0 min 0 W/m 29,3 km/h (5 Bft)
03.06.2015 04:22 18,0 C 15,0 C 77 % 0 lf 1014,3 hPa 0,0 l/m 0 min 0 min 0 W/m 35,6 km/h (5 Bft)
03.06.2015 04:24 18,0 C 15,6 C 78 % 0 lf 1014,4 hPa 0,0 l/m 0 min 0 min 0 W/m 29,3 km/h (5 Bft)
03.06.2015 04:26 17,9 C 15,0 C 78 % 0 lf 1014,3 hPa 0,0 l/m 0 min 0 min 0 W/m 20,9 km/h (4 Bft)
03.06.2015 04:28 17,9 C 15,0 C 78 % 0 lf 1014,3 hPa 0,0 l/m 0 min 0 min 0 W/m 14,6 km/h (3 Bft)
03.06.2015 04:30 17,9 C 15,0 C 78 % 0 lf 1014,3 hPa 0,0 l/m 0 min 0 min 0 W/m 27,2 km/h (4 Bft)
03.06.2015 04:32 17,9 C 15,0 C 78 % 0 lf 1014,5 hPa 0,0 l/m 0 min 0 min 0 W/m 27,2 km/h (4 Bft)
03.06.2015 04:34 17,9 C 15,0 C 78 % 0 lf 1014,5 hPa 0,0 l/m 0 min 0 min 0 W/m 20,9 km/h (4 Bft)
03.06.2015 04:36 17,9 C 15,0 C 78 % 0 lf 1014,6 hPa 0,0 l/m 0 min 0 min 0 W/m 27,2 km/h (4 Bft)
03.06.2015 04:38 17,8 C 15,0 C 79 % 0 lf 1014,5 hPa 0,0 l/m 0 min 0 min 0 W/m 18,8 km/h (3 Bft)
03.06.2015 04:40 17,8 C 15,0 C 79 % 0 lf 1014,6 hPa 0,0 l/m 0 min 0 min 0 W/m 25,1 km/h (4 Bft)
03.06.2015 04:42 17,8 C 15,0 C 79 % 0 lf 1014,6 hPa 0,0 l/m 0 min 0 min 0 W/m 18,8 km/h (3 Bft)
03.06.2015 04:44 17,8 C 15,0 C 79 % 0 lf 1014,6 hPa 0,0 l/m 0 min 0 min 0 W/m 20,9 km/h (4 Bft)
03.06.2015 04:46 17,8 C 15,0 C 79 % 0 lf 1014,6 hPa 0,0 l/m 0 min 0 min 0 W/m 25,1 km/h (4 Bft)
03.06.2015 04:48 17,7 C 15,0 C 79 % 0 lf 1014,6 hPa 0,0 l/m 0 min 0 min 0 W/m 23,0 km/h (4 Bft)
03.06.2015 04:50 17,7 C 15,0 C 79 % 0 lf 1014,6 hPa 0,0 l/m 0 min 0 min 0 W/m 14,6 km/h (3 Bft)
03.06.2015 04:52 17,7 C 15,0 C 80 % 0 lf 1014,7 hPa 0,0 l/m 0 min 0 min 0 W/m 14,6 km/h (3 Bft)
03.06.2015 04:54 17,7 C 15,0 C 80 % 0 lf 1014,6 hPa 0,0 l/m 0 min 0 min 0 W/m 10,5 km/h (2 Bft)
03.06.2015 04:56 17,7 C 15,0 C 80 % 0 lf 1014,6 hPa 0,0 l/m 0 min 0 min 0 W/m 14,6 km/h (3 Bft)
03.06.2015 04:58 17,6 C 15,0 C 80 % 0 lf 1014,6 hPa 0,0 l/m 0 min 0 min 0 W/m 16,7 km/h (3 Bft)
03.06.2015 05:00 17,6 C 15,0 C 80 % 0 lf 1014,7 hPa 0,0 l/m 0 min 0 min 0 W/m 25,1 km/h (4 Bft)
03.06.2015 05:02 17,6 C 15,0 C 80 % 1 lf 1014,7 hPa 0,0 l/m 0 min 2 min 0 W/m 25,1 km/h (4 Bft)
03.06.2015 05:04 17,6 C 15,0 C 81 % 12 lf 1014,9 hPa 0,0 l/m 0 min 2 min 0 W/m 10,5 km/h (2 Bft)
03.06.2015 05:06 17,5 C 14,4 C 81 % 14 lf 1014,9 hPa 0,0 l/m 0 min 2 min 0 W/m 25,1 km/h (4 Bft)
03.06.2015 05:08 17,5 C 14,4 C 82 % 14 lf 1014,9 hPa 0,0 l/m 0 min 2 min 0 W/m 27,2 km/h (4 Bft)
03.06.2015 05:10 17,4 C 14,4 C 83 % 15 lf 1015,1 hPa 0,0 l/m 0 min 2 min 0 W/m 18,8 km/h (3 Bft)
03.06.2015 05:12 17,4 C 14,4 C 84 % 15 lf 1015,1 hPa 0,0 l/m 0 min 2 min 0 W/m 16,7 km/h (3 Bft)
03.06.2015 05:14 17,3 C 13,9 C 84 % 15 lf 1015,1 hPa 0,0 l/m 0 min 2 min 0 W/m 14,6 km/h (3 Bft)
03.06.2015 05:16 17,3 C 13,9 C 85 % 15 lf 1015,1 hPa 0,2 l/m 0 min 2 min 0 W/m 35,6 km/h (5 Bft)
03.06.2015 05:18 17,2 C 13,9 C 85 % 15 lf 1015,1 hPa 0,0 l/m 0 min 2 min 0 W/m 18,8 km/h (3 Bft)
03.06.2015 05:20 17,1 C 13,9 C 86 % 15 lf 1015,2 hPa 0,2 l/m 0 min 2 min 0 W/m 16,7 km/h (3 Bft)
03.06.2015 05:22 16,9 C 13,9 C 86 % 15 lf 1015,3 hPa 0,0 l/m 0 min 2 min 0 W/m 41,8 km/h (6 Bft)
03.06.2015 05:24 16,7 C 13,9 C 86 % 15 lf 1015,5 hPa 0,0 l/m 0 min 2 min 0 W/m 27,2 km/h (4 Bft)
03.06.2015 05:26 16,4 C 13,3 C 86 % 15 lf 1015,6 hPa 0,0 l/m 0 min 2 min 0 W/m 27,2 km/h (4 Bft)
03.06.2015 05:28 16,2 C 13,3 C 87 % 15 lf 1015,6 hPa 0,0 l/m 0 min 2 min 0 W/m 23,0 km/h (4 Bft)
03.06.2015 05:30 16,0 C 13,3 C 87 % 15 lf 1015,7 hPa 0,0 l/m 0 min 2 min 0 W/m 20,9 km/h (4 Bft)
03.06.2015 05:32 15,7 C 13,3 C 87 % 15 lf 1015,6 hPa 0,0 l/m 0 min 0 min 0 W/m 20,9 km/h (4 Bft)
03.06.2015 05:34 15,6 C 13,3 C 88 % 15 lf 1015,6 hPa 0,0 l/m 0 min 0 min 4 W/m 20,9 km/h (4 Bft)
03.06.2015 05:36 15,5 C 13,3 C 88 % 15 lf 1015,6 hPa 0,0 l/m 0 min 0 min 5 W/m 16,7 km/h (3 Bft)
03.06.2015 05:38 15,4 C 13,3 C 88 % 15 lf 1015,6 hPa 0,0 l/m 0 min 0 min 5 W/m 18,8 km/h (3 Bft)
03.06.2015 05:40 15,2 C 12,8 C 89 % 15 lf 1015,7 hPa 0,0 l/m 0 min 0 min 5 W/m 23,0 km/h (4 Bft)
03.06.2015 05:42 15,1 C 12,8 C 89 % 15 lf 1015,7 hPa 0,0 l/m 0 min 0 min 7 W/m 29,3 km/h (5 Bft)
03.06.2015 05:44 14,9 C 12,8 C 89 % 15 lf 1015,7 hPa 0,0 l/m 0 min 0 min 8 W/m 20,9 km/h (4 Bft)
03.06.2015 05:46 14,8 C 12,8 C 89 % 15 lf 1015,8 hPa 0,0 l/m 0 min 0 min 9 W/m 20,9 km/h (4 Bft)
03.06.2015 05:48 14,7 C 12,8 C 89 % 15 lf 1015,8 hPa 0,0 l/m 0 min 0 min 9 W/m 23,0 km/h (4 Bft)
03.06.2015 05:50 14,6 C 12,8 C 89 % 15 lf 1015,8 hPa 0,0 l/m 0 min 0 min 9 W/m 29,3 km/h (5 Bft)
03.06.2015 05:52 14,5 C 12,8 C 89 % 15 lf 1015,9 hPa 0,0 l/m 0 min 0 min 11 W/m 18,8 km/h (3 Bft)
03.06.2015 05:54 14,4 C 12,8 C 89 % 15 lf 1015,9 hPa 0,0 l/m 0 min 0 min 11 W/m 16,7 km/h (3 Bft)
03.06.2015 05:56 14,2 C 12,2 C 88 % 15 lf 1015,9 hPa 0,0 l/m 0 min 0 min 11 W/m 23,0 km/h (4 Bft)
03.06.2015 05:58 14,2 C 12,2 C 89 % 15 lf 1016,0 hPa 0,0 l/m 0 min 0 min 11 W/m 16,7 km/h (3 Bft)
03.06.2015 06:00 14,2 C 12,2 C 89 % 15 lf 1015,9 hPa 0,0 l/m 0 min 0 min 11 W/m 18,8 km/h (3 Bft)
03.06.2015 06:02 14,1 C 12,2 C 89 % 15 lf 1015,9 hPa 0,0 l/m 0 min 0 min 13 W/m 27,2 km/h (4 Bft)
03.06.2015 06:06 13,9 C 12,2 C 89 % 15 lf 1016,0 hPa 0,0 l/m 0 min 0 min 15 W/m 16,7 km/h (3 Bft)
03.06.2015 06:08 13,9 C 12,2 C 89 % 15 lf 1016,0 hPa 0,0 l/m 0 min 0 min 16 W/m 18,8 km/h (3 Bft)
03.06.2015 06:10 13,8 C 12,2 C 89 % 15 lf 1016,1 hPa 0,0 l/m 0 min 0 min 16 W/m 20,9 km/h (4 Bft)
03.06.2015 06:12 13,8 C 12,2 C 88 % 15 lf 1016,1 hPa 0,0 l/m 0 min 0 min 16 W/m 16,7 km/h (3 Bft)
03.06.2015 06:14 13,8 C 12,2 C 89 % 15 lf 1016,2 hPa 0,0 l/m 0 min 0 min 17 W/m 25,1 km/h (4 Bft)
03.06.2015 06:16 13,7 C 12,2 C 89 % 15 lf 1016,2 hPa 0,0 l/m 0 min 0 min 19 W/m 23,0 km/h (4 Bft)
03.06.2015 06:18 13,7 C 12,2 C 89 % 15 lf 1016,2 hPa 0,0 l/m 0 min 0 min 20 W/m 25,1 km/h (4 Bft)
03.06.2015 06:20 13,7 C 12,2 C 89 % 15 lf 1016,2 hPa 0,0 l/m 0 min 0 min 25 W/m 29,3 km/h (5 Bft)
03.06.2015 06:22 13,6 C 12,2 C 89 % 15 lf 1016,3 hPa 0,0 l/m 0 min 0 min 23 W/m 14,6 km/h (3 Bft)
03.06.2015 06:24 13,6 C 12,2 C 89 % 15 lf 1016,3 hPa 0,0 l/m 0 min 0 min 26 W/m 14,6 km/h (3 Bft)
03.06.2015 06:26 13,6 C 12,2 C 89 % 15 lf 1016,3 hPa 0,0 l/m 0 min 0 min 27 W/m 23,0 km/h (4 Bft)
03.06.2015 06:28 13,6 C 12,2 C 89 % 15 lf 1016,3 hPa 0,0 l/m 0 min 0 min 35 W/m 25,1 km/h (4 Bft)
03.06.2015 06:30 13,6 C 12,2 C 89 % 15 lf 1016,3 hPa 0,0 l/m 0 min 0 min 40 W/m 25,1 km/h (4 Bft)
03.06.2015 06:32 13,6 C 12,2 C 89 % 15 lf 1016,3 hPa 0,0 l/m 0 min 0 min 39 W/m 23,0 km/h (4 Bft)
03.06.2015 06:34 13,6 C 12,2 C 89 % 15 lf 1016,4 hPa 0,0 l/m 0 min 0 min 44 W/m 14,6 km/h (3 Bft)
03.06.2015 06:36 13,6 C 12,2 C 89 % 15 lf 1016,4 hPa 0,0 l/m 0 min 0 min 44 W/m 12,6 km/h (3 Bft)
03.06.2015 06:38 13,6 C 12,2 C 89 % 15 lf 1016,5 hPa 0,0 l/m 0 min 0 min 45 W/m 27,2 km/h (4 Bft)
03.06.2015 06:40 13,6 C 12,2 C 89 % 15 lf 1016,6 hPa 0,0 l/m 0 min 0 min 49 W/m 14,6 km/h (3 Bft)
03.06.2015 06:42 13,6 C 12,2 C 89 % 15 lf 1016,5 hPa 0,0 l/m 0 min 0 min 51 W/m 14,6 km/h (3 Bft)
03.06.2015 06:44 13,6 C 12,2 C 89 % 15 lf 1016,6 hPa 0,0 l/m 0 min 0 min 53 W/m 25,1 km/h (4 Bft)
03.06.2015 06:46 13,6 C 12,2 C 88 % 15 lf 1016,5 hPa 0,0 l/m 0 min 0 min 58 W/m 20,9 km/h (4 Bft)
03.06.2015 06:48 13,6 C 12,2 C 88 % 15 lf 1016,7 hPa 0,0 l/m 0 min 0 min 54 W/m 20,9 km/h (4 Bft)
03.06.2015 06:50 13,6 C 12,2 C 88 % 14 lf 1016,7 hPa 0,0 l/m 0 min 0 min 44 W/m 23,0 km/h (4 Bft)
03.06.2015 06:52 13,6 C 12,2 C 88 % 14 lf 1016,7 hPa 0,0 l/m 0 min 0 min 40 W/m 18,8 km/h (3 Bft)
03.06.2015 06:54 13,6 C 12,2 C 88 % 13 lf 1016,8 hPa 0,0 l/m 0 min 0 min 44 W/m 14,6 km/h (3 Bft)
03.06.2015 06:56 13,6 C 12,2 C 88 % 11 lf 1016,8 hPa 0,0 l/m 0 min 0 min 57 W/m 20,9 km/h (4 Bft)
03.06.2015 06:58 13,7 C 12,2 C 88 % 9 lf 1016,9 hPa 0,0 l/m 0 min 0 min 42 W/m 14,6 km/h (3 Bft)
03.06.2015 07:00 13,7 C 12,2 C 88 % 6 lf 1016,8 hPa 0,0 l/m 0 min 0 min 34 W/m 14,6 km/h (3 Bft)
03.06.2015 07:02 13,7 C 12,2 C 87 % 3 lf 1017,0 hPa 0,0 l/m 0 min 0 min 60 W/m 23,0 km/h (4 Bft)
03.06.2015 07:04 13,7 C 12,8 C 87 % 1 lf 1017,0 hPa 0,0 l/m 0 min 0 min 92 W/m 14,6 km/h (3 Bft)
03.06.2015 07:06 13,7 C 12,8 C 87 % 0 lf 1017,0 hPa 0,0 l/m 0 min 0 min 83 W/m 14,6 km/h (3 Bft)
03.06.2015 07:08 13,7 C 12,8 C 87 % 0 lf 1017,0 hPa 0,0 l/m 0 min 0 min 83 W/m 14,6 km/h (3 Bft)
03.06.2015 07:10 13,7 C 12,8 C 87 % 0 lf 1017,1 hPa 0,0 l/m 0 min 0 min 87 W/m 14,6 km/h (3 Bft)
03.06.2015 07:12 13,8 C 12,8 C 87 % 0 lf 1017,1 hPa 0,0 l/m 0 min 0 min 90 W/m 25,1 km/h (4 Bft)
03.06.2015 07:14 13,8 C 12,8 C 87 % 0 lf 1017,1 hPa 0,0 l/m 2 min 0 min 126 W/m 23,0 km/h (4 Bft)
03.06.2015 07:16 13,8 C 12,8 C 87 % 0 lf 1017,2 hPa 0,0 l/m 0 min 0 min 86 W/m 16,7 km/h (3 Bft)
03.06.2015 07:18 13,8 C 12,8 C 87 % 0 lf 1017,2 hPa 0,0 l/m 0 min 0 min 86 W/m 20,9 km/h (4 Bft)
03.06.2015 07:20 13,8 C 12,8 C 87 % 0 lf 1017,3 hPa 0,0 l/m 0 min 0 min 103 W/m 20,9 km/h (4 Bft)
03.06.2015 07:22 13,8 C 12,8 C 87 % 0 lf 1017,3 hPa 0,0 l/m 0 min 0 min 87 W/m 18,8 km/h (3 Bft)
03.06.2015 07:24 13,9 C 12,8 C 86 % 0 lf 1017,3 hPa 0,0 l/m 0 min 0 min 91 W/m 18,8 km/h (3 Bft)
03.06.2015 07:26 13,9 C 12,8 C 86 % 0 lf 1017,3 hPa 0,0 l/m 0 min 0 min 87 W/m 23,0 km/h (4 Bft)
03.06.2015 07:28 13,9 C 12,8 C 86 % 0 lf 1017,4 hPa 0,0 l/m 0 min 0 min 89 W/m 18,8 km/h (3 Bft)
03.06.2015 07:30 13,9 C 12,8 C 86 % 0 lf 1017,4 hPa 0,0 l/m 0 min 0 min 94 W/m 14,6 km/h (3 Bft)
03.06.2015 07:32 13,9 C 12,8 C 85 % 0 lf 1017,5 hPa 0,0 l/m 0 min 0 min 89 W/m 20,9 km/h (4 Bft)
03.06.2015 07:34 13,9 C 12,8 C 85 % 0 lf 1017,5 hPa 0,0 l/m 0 min 0 min 113 W/m 25,1 km/h (4 Bft)
03.06.2015 07:36 13,9 C 12,8 C 85 % 0 lf 1017,5 hPa 0,0 l/m 0 min 0 min 93 W/m 18,8 km/h (3 Bft)
03.06.2015 07:38 13,9 C 12,8 C 85 % 0 lf 1017,6 hPa 0,0 l/m 0 min 0 min 99 W/m 20,9 km/h (4 Bft)
03.06.2015 07:40 13,9 C 12,8 C 85 % 0 lf 1017,6 hPa 0,0 l/m 0 min 0 min 140 W/m 20,9 km/h (4 Bft)
03.06.2015 07:42 14,0 C 12,8 C 85 % 0 lf 1017,6 hPa 0,0 l/m 0 min 0 min 128 W/m 16,7 km/h (3 Bft)
03.06.2015 07:44 14,0 C 12,8 C 85 % 0 lf 1017,6 hPa 0,0 l/m 0 min 0 min 123 W/m 23,0 km/h (4 Bft)
03.06.2015 07:46 14,1 C 12,8 C 85 % 0 lf 1017,6 hPa 0,0 l/m 0 min 0 min 145 W/m 14,6 km/h (3 Bft)
03.06.2015 07:48 14,1 C 12,8 C 85 % 0 lf 1017,6 hPa 0,0 l/m 2 min 0 min 196 W/m 16,7 km/h (3 Bft)
03.06.2015 07:50 14,1 C 12,8 C 85 % 0 lf 1017,6 hPa 0,0 l/m 2 min 0 min 207 W/m 16,7 km/h (3 Bft)
03.06.2015 07:52 14,2 C 13,3 C 84 % 0 lf 1017,7 hPa 0,0 l/m 2 min 0 min 172 W/m 12,6 km/h (3 Bft)
03.06.2015 07:54 14,2 C 13,3 C 84 % 0 lf 1017,7 hPa 0,0 l/m 2 min 0 min 179 W/m 16,7 km/h (3 Bft)
03.06.2015 07:56 14,2 C 13,3 C 84 % 0 lf 1017,7 hPa 0,0 l/m 2 min 0 min 201 W/m 18,8 km/h (3 Bft)
03.06.2015 07:58 14,2 C 13,3 C 84 % 0 lf 1017,6 hPa 0,0 l/m 2 min 0 min 189 W/m 29,3 km/h (5 Bft)
03.06.2015 08:00 14,2 C 13,3 C 84 % 0 lf 1017,8 hPa 0,0 l/m 2 min 0 min 179 W/m 20,9 km/h (4 Bft)
03.06.2015 08:02 14,2 C 13,3 C 84 % 0 lf 1017,9 hPa 0,0 l/m 2 min 0 min 183 W/m 20,9 km/h (4 Bft)
03.06.2015 08:04 14,2 C 13,3 C 84 % 0 lf 1017,9 hPa 0,0 l/m 0 min 0 min 180 W/m 16,7 km/h (3 Bft)
03.06.2015 08:06 14,2 C 13,3 C 84 % 0 lf 1018,0 hPa 0,0 l/m 0 min 0 min 168 W/m 18,8 km/h (3 Bft)
03.06.2015 08:08 14,2 C 13,3 C 84 % 0 lf 1018,0 hPa 0,0 l/m 2 min 0 min 204 W/m 16,7 km/h (3 Bft)
03.06.2015 08:10 14,3 C 13,3 C 84 % 0 lf 1017,9 hPa 0,0 l/m 2 min 0 min 246 W/m 27,2 km/h (4 Bft)
03.06.2015 08:12 14,4 C 13,3 C 83 % 0 lf 1018,0 hPa 0,0 l/m 2 min 0 min 275 W/m 18,8 km/h (3 Bft)
03.06.2015 08:14 14,4 C 13,3 C 83 % 0 lf 1018,0 hPa 0,0 l/m 2 min 0 min 205 W/m 23,0 km/h (4 Bft)
03.06.2015 08:16 14,4 C 13,3 C 83 % 0 lf 1018,2 hPa 0,0 l/m 2 min 0 min 221 W/m 27,2 km/h (4 Bft)
03.06.2015 08:18 14,5 C 13,3 C 83 % 0 lf 1018,2 hPa 0,0 l/m 2 min 0 min 247 W/m 25,1 km/h (4 Bft)
03.06.2015 08:20 14,5 C 13,3 C 83 % 0 lf 1018,1 hPa 0,0 l/m 2 min 0 min 246 W/m 20,9 km/h (4 Bft)
03.06.2015 08:22 14,6 C 13,3 C 83 % 0 lf 1018,2 hPa 0,0 l/m 2 min 0 min 280 W/m 27,2 km/h (4 Bft)
03.06.2015 08:24 14,6 C 13,3 C 82 % 0 lf 1018,3 hPa 0,0 l/m 2 min 0 min 306 W/m 20,9 km/h (4 Bft)
03.06.2015 08:26 14,6 C 13,3 C 82 % 0 lf 1018,2 hPa 0,0 l/m 2 min 0 min 235 W/m 31,4 km/h (5 Bft)
03.06.2015 08:28 14,6 C 13,3 C 81 % 0 lf 1018,2 hPa 0,0 l/m 2 min 0 min 232 W/m 23,0 km/h (4 Bft)
03.06.2015 08:30 14,7 C 13,3 C 82 % 0 lf 1018,3 hPa 0,0 l/m 2 min 0 min 266 W/m 25,1 km/h (4 Bft)
03.06.2015 08:32 14,7 C 13,3 C 81 % 0 lf 1018,4 hPa 0,0 l/m 2 min 0 min 242 W/m 25,1 km/h (4 Bft)
03.06.2015 08:34 14,7 C 13,3 C 81 % 0 lf 1018,4 hPa 0,0 l/m 0 min 0 min 210 W/m 31,4 km/h (5 Bft)
03.06.2015 08:36 14,8 C 13,3 C 80 % 0 lf 1018,4 hPa 0,0 l/m 2 min 0 min 226 W/m 27,2 km/h (4 Bft)
03.06.2015 08:38 14,8 C 13,3 C 80 % 0 lf 1018,4 hPa 0,0 l/m 2 min 0 min 267 W/m 29,3 km/h (5 Bft)
03.06.2015 08:40 14,8 C 13,3 C 80 % 0 lf 1018,4 hPa 0,0 l/m 2 min 0 min 280 W/m 23,0 km/h (4 Bft)
03.06.2015 08:42 14,9 C 13,9 C 80 % 0 lf 1018,4 hPa 0,0 l/m 2 min 0 min 297 W/m 29,3 km/h (5 Bft)
03.06.2015 08:44 14,9 C 13,9 C 80 % 0 lf 1018,4 hPa 0,0 l/m 2 min 0 min 281 W/m 25,1 km/h (4 Bft)
03.06.2015 08:46 14,9 C 13,9 C 80 % 0 lf 1018,4 hPa 0,0 l/m 2 min 0 min 241 W/m 27,2 km/h (4 Bft)
03.06.2015 08:48 15,0 C 13,9 C 80 % 0 lf 1018,5 hPa 0,0 l/m 2 min 0 min 246 W/m 23,0 km/h (4 Bft)
03.06.2015 08:50 15,0 C 13,9 C 79 % 0 lf 1018,5 hPa 0,0 l/m 2 min 0 min 290 W/m 29,3 km/h (5 Bft)
03.06.2015 08:52 15,1 C 13,9 C 79 % 0 lf 1018,5 hPa 0,0 l/m 2 min 0 min 285 W/m 27,2 km/h (4 Bft)
03.06.2015 08:54 15,1 C 13,9 C 79 % 0 lf 1018,5 hPa 0,0 l/m 2 min 0 min 270 W/m 20,9 km/h (4 Bft)
03.06.2015 08:56 15,1 C 13,9 C 79 % 0 lf 1018,5 hPa 0,0 l/m 2 min 0 min 264 W/m 23,0 km/h (4 Bft)
03.06.2015 08:58 15,2 C 13,9 C 78 % 0 lf 1018,5 hPa 0,0 l/m 2 min 0 min 294 W/m 27,2 km/h (4 Bft)
03.06.2015 09:00 15,2 C 13,9 C 78 % 0 lf 1018,6 hPa 0,0 l/m 2 min 0 min 294 W/m 29,3 km/h (5 Bft)
03.06.2015 09:02 15,2 C 13,9 C 77 % 0 lf 1018,6 hPa 0,0 l/m 2 min 0 min 289 W/m 23,0 km/h (4 Bft)
03.06.2015 09:04 15,3 C 13,9 C 78 % 0 lf 1018,6 hPa 0,0 l/m 2 min 0 min 285 W/m 25,1 km/h (4 Bft)
03.06.2015 09:06 15,3 C 13,9 C 77 % 0 lf 1018,6 hPa 0,0 l/m 2 min 0 min 285 W/m 27,2 km/h (4 Bft)
03.06.2015 09:08 15,4 C 13,9 C 76 % 0 lf 1018,6 hPa 0,0 l/m 2 min 0 min 480 W/m 23,0 km/h (4 Bft)
03.06.2015 09:10 15,4 C 13,9 C 76 % 0 lf 1018,8 hPa 0,0 l/m 2 min 0 min 563 W/m 27,2 km/h (4 Bft)
03.06.2015 09:12 15,6 C 13,9 C 76 % 0 lf 1018,9 hPa 0,0 l/m 2 min 0 min 564 W/m 27,2 km/h (4 Bft)
03.06.2015 09:14 15,6 C 13,9 C 76 % 0 lf 1018,9 hPa 0,0 l/m 2 min 0 min 566 W/m 23,0 km/h (4 Bft)
03.06.2015 09:16 15,7 C 13,9 C 76 % 0 lf 1018,9 hPa 0,0 l/m 2 min 0 min 642 W/m 23,0 km/h (4 Bft)
03.06.2015 09:18 15,8 C 13,9 C 75 % 0 lf 1018,9 hPa 0,0 l/m 2 min 0 min 662 W/m 25,1 km/h (4 Bft)
03.06.2015 09:20 15,9 C 13,9 C 75 % 0 lf 1019,0 hPa 0,0 l/m 2 min 0 min 664 W/m 25,1 km/h (4 Bft)
03.06.2015 09:22 16,1 C 13,9 C 74 % 0 lf 1019,0 hPa 0,0 l/m 2 min 0 min 664 W/m 25,1 km/h (4 Bft)
03.06.2015 09:24 16,2 C 14,4 C 75 % 0 lf 1019,0 hPa 0,0 l/m 2 min 0 min 511 W/m 27,2 km/h (4 Bft)
03.06.2015 09:26 16,2 C 14,4 C 74 % 0 lf 1019,0 hPa 0,0 l/m 2 min 0 min 446 W/m 33,5 km/h (5 Bft)
03.06.2015 09:28 16,3 C 14,4 C 73 % 0 lf 1019,0 hPa 0,0 l/m 2 min 0 min 369 W/m 31,4 km/h (5 Bft)
03.06.2015 09:30 16,3 C 14,4 C 72 % 0 lf 1019,0 hPa 0,0 l/m 2 min 0 min 426 W/m 33,5 km/h (5 Bft)
03.06.2015 09:32 16,3 C 14,4 C 72 % 0 lf 1019,0 hPa 0,0 l/m 2 min 0 min 506 W/m 27,2 km/h (4 Bft)
03.06.2015 09:34 16,4 C 14,4 C 72 % 0 lf 1019,0 hPa 0,0 l/m 2 min 0 min 570 W/m 20,9 km/h (4 Bft)
03.06.2015 09:36 16,4 C 14,4 C 72 % 0 lf 1019,1 hPa 0,0 l/m 2 min 0 min 323 W/m 27,2 km/h (4 Bft)
03.06.2015 09:38 16,4 C 14,4 C 72 % 0 lf 1019,1 hPa 0,0 l/m 2 min 0 min 296 W/m 29,3 km/h (5 Bft)
03.06.2015 09:40 16,4 C 14,4 C 72 % 0 lf 1019,1 hPa 0,0 l/m 2 min 0 min 306 W/m 25,1 km/h (4 Bft)
03.06.2015 09:42 16,4 C 14,4 C 72 % 0 lf 1019,1 hPa 0,0 l/m 2 min 0 min 313 W/m 27,2 km/h (4 Bft)
03.06.2015 09:44 16,4 C 14,4 C 72 % 0 lf 1019,1 hPa 0,0 l/m 2 min 0 min 353 W/m 20,9 km/h (4 Bft)
03.06.2015 09:46 16,4 C 14,4 C 72 % 0 lf 1019,2 hPa 0,0 l/m 0 min 0 min 235 W/m 16,7 km/h (3 Bft)
03.06.2015 09:48 16,4 C 14,4 C 73 % 0 lf 1019,2 hPa 0,0 l/m 0 min 0 min 239 W/m 16,7 km/h (3 Bft)
03.06.2015 09:50 16,3 C 14,4 C 73 % 0 lf 1019,2 hPa 0,0 l/m 0 min 0 min 255 W/m 23,0 km/h (4 Bft)
03.06.2015 09:52 16,3 C 14,4 C 72 % 0 lf 1019,2 hPa 0,0 l/m 0 min 0 min 289 W/m 20,9 km/h (4 Bft)
03.06.2015 09:54 16,3 C 15,0 C 73 % 0 lf 1019,1 hPa 0,0 l/m 2 min 0 min 352 W/m 23,0 km/h (4 Bft)
03.06.2015 09:56 16,4 C 15,0 C 73 % 0 lf 1019,3 hPa 0,0 l/m 2 min 0 min 422 W/m 25,1 km/h (4 Bft)
03.06.2015 09:58 16,4 C 15,0 C 73 % 0 lf 1019,3 hPa 0,0 l/m 2 min 0 min 499 W/m 20,9 km/h (4 Bft)
03.06.2015 10:00 16,4 C 15,0 C 73 % 0 lf 1019,3 hPa 0,0 l/m 0 min 0 min 256 W/m 25,1 km/h (4 Bft)
03.06.2015 10:02 16,4 C 15,0 C 72 % 0 lf 1019,5 hPa 0,0 l/m 0 min 0 min 210 W/m 33,5 km/h (5 Bft)
03.06.2015 10:04 16,4 C 14,4 C 72 % 0 lf 1019,4 hPa 0,0 l/m 0 min 0 min 201 W/m 25,1 km/h (4 Bft)
03.06.2015 10:06 16,4 C 14,4 C 72 % 0 lf 1019,5 hPa 0,0 l/m 0 min 0 min 181 W/m 20,9 km/h (4 Bft)
03.06.2015 10:08 16,3 C 14,4 C 73 % 0 lf 1019,6 hPa 0,0 l/m 0 min 0 min 162 W/m 20,9 km/h (4 Bft)
03.06.2015 10:10 16,3 C 14,4 C 73 % 0 lf 1019,6 hPa 0,0 l/m 0 min 0 min 161 W/m 29,3 km/h (5 Bft)
03.06.2015 10:12 16,2 C 14,4 C 72 % 0 lf 1019,6 hPa 0,0 l/m 0 min 0 min 163 W/m 27,2 km/h (4 Bft)
03.06.2015 10:14 16,2 C 14,4 C 72 % 0 lf 1019,6 hPa 0,0 l/m 0 min 0 min 198 W/m 14,6 km/h (3 Bft)
03.06.2015 10:16 16,2 C 14,4 C 73 % 0 lf 1019,7 hPa 0,0 l/m 0 min 0 min 247 W/m 23,0 km/h (4 Bft)
03.06.2015 10:18 16,1 C 14,4 C 73 % 0 lf 1019,7 hPa 0,0 l/m 0 min 0 min 296 W/m 23,0 km/h (4 Bft)
03.06.2015 10:20 16,1 C 15,0 C 73 % 0 lf 1019,7 hPa 0,0 l/m 0 min 0 min 252 W/m 27,2 km/h (4 Bft)
03.06.2015 10:22 16,1 C 14,4 C 73 % 0 lf 1019,8 hPa 0,0 l/m 0 min 0 min 243 W/m 25,1 km/h (4 Bft)
03.06.2015 10:24 16,1 C 14,4 C 73 % 0 lf 1019,8 hPa 0,0 l/m 0 min 0 min 235 W/m 29,3 km/h (5 Bft)
03.06.2015 10:26 16,1 C 14,4 C 73 % 0 lf 1019,8 hPa 0,0 l/m 0 min 0 min 312 W/m 27,2 km/h (4 Bft)
03.06.2015 10:28 16,0 C 15,0 C 73 % 0 lf 1019,8 hPa 0,0 l/m 2 min 0 min 367 W/m 20,9 km/h (4 Bft)
03.06.2015 10:30 16,1 C 15,0 C 73 % 0 lf 1019,8 hPa 0,0 l/m 2 min 0 min 371 W/m 23,0 km/h (4 Bft)
03.06.2015 10:32 16,1 C 15,0 C 73 % 0 lf 1019,9 hPa 0,0 l/m 2 min 0 min 364 W/m 25,1 km/h (4 Bft)
03.06.2015 10:34 16,1 C 15,0 C 74 % 0 lf 1019,9 hPa 0,0 l/m 2 min 0 min 368 W/m 23,0 km/h (4 Bft)
03.06.2015 10:36 16,2 C 15,0 C 74 % 0 lf 1020,0 hPa 0,0 l/m 2 min 0 min 356 W/m 27,2 km/h (4 Bft)
03.06.2015 10:38 16,2 C 15,0 C 73 % 0 lf 1020,0 hPa 0,0 l/m 2 min 0 min 384 W/m 25,1 km/h (4 Bft)
03.06.2015 10:40 16,2 C 15,6 C 72 % 0 lf 1020,0 hPa 0,2 l/m 2 min 0 min 427 W/m 31,4 km/h (5 Bft)
03.06.2015 10:42 16,3 C 15,6 C 71 % 0 lf 1020,1 hPa 0,0 l/m 2 min 0 min 471 W/m 25,1 km/h (4 Bft)
03.06.2015 10:44 16,3 C 15,6 C 72 % 0 lf 1020,0 hPa 0,0 l/m 2 min 0 min 440 W/m 35,6 km/h (5 Bft)
03.06.2015 10:46 16,4 C 15,6 C 72 % 0 lf 1020,1 hPa 0,0 l/m 2 min 0 min 372 W/m 33,5 km/h (5 Bft)
03.06.2015 10:48 16,4 C 15,6 C 72 % 0 lf 1020,3 hPa 0,0 l/m 2 min 0 min 404 W/m 20,9 km/h (4 Bft)
03.06.2015 10:50 16,5 C 15,6 C 72 % 0 lf 1020,2 hPa 0,0 l/m 2 min 0 min 389 W/m 23,0 km/h (4 Bft)
03.06.2015 10:52 16,6 C 16,1 C 72 % 0 lf 1020,3 hPa 0,0 l/m 0 min 0 min 328 W/m 23,0 km/h (4 Bft)
03.06.2015 10:54 16,7 C 16,1 C 73 % 0 lf 1020,3 hPa 0,0 l/m 0 min 0 min 327 W/m 29,3 km/h (5 Bft)
03.06.2015 10:56 16,8 C 16,1 C 70 % 0 lf 1020,3 hPa 0,0 l/m 0 min 0 min 331 W/m 18,8 km/h (3 Bft)
03.06.2015 10:58 16,8 C 16,1 C 70 % 0 lf 1020,3 hPa 0,0 l/m 0 min 0 min 362 W/m 14,6 km/h (3 Bft)
03.06.2015 11:00 17,0 C 16,7 C 70 % 0 lf 1020,4 hPa 0,0 l/m 2 min 0 min 749 W/m 25,1 km/h (4 Bft)
03.06.2015 11:02 17,2 C 16,7 C 69 % 0 lf 1020,4 hPa 0,0 l/m 2 min 0 min 951 W/m 31,4 km/h (5 Bft)
03.06.2015 11:04 17,2 C 16,7 C 68 % 0 lf 1020,4 hPa 0,0 l/m 2 min 0 min 888 W/m 23,0 km/h (4 Bft)
03.06.2015 11:06 17,3 C 16,1 C 66 % 0 lf 1020,4 hPa 0,0 l/m 2 min 0 min 373 W/m 25,1 km/h (4 Bft)
03.06.2015 11:08 17,3 C 16,1 C 65 % 0 lf 1020,4 hPa 0,0 l/m 0 min 0 min 246 W/m 25,1 km/h (4 Bft)
03.06.2015 11:10 17,3 C 16,1 C 65 % 0 lf 1020,4 hPa 0,0 l/m 0 min 0 min 225 W/m 29,3 km/h (5 Bft)
03.06.2015 11:12 17,3 C 15,6 C 64 % 0 lf 1020,4 hPa 0,0 l/m 0 min 0 min 334 W/m 27,2 km/h (4 Bft)
03.06.2015 11:14 17,3 C 15,6 C 65 % 0 lf 1020,5 hPa 0,0 l/m 0 min 0 min 350 W/m 27,2 km/h (4 Bft)
03.06.2015 11:16 17,2 C 15,6 C 64 % 0 lf 1020,5 hPa 0,0 l/m 0 min 0 min 330 W/m 27,2 km/h (4 Bft)
03.06.2015 11:18 17,2 C 15,6 C 64 % 0 lf 1020,5 hPa 0,0 l/m 0 min 0 min 357 W/m 23,0 km/h (4 Bft)
03.06.2015 11:20 17,1 C 15,6 C 64 % 0 lf 1020,5 hPa 0,0 l/m 0 min 0 min 324 W/m 31,4 km/h (5 Bft)
03.06.2015 11:22 17,1 C 15,6 C 65 % 0 lf 1020,5 hPa 0,0 l/m 2 min 0 min 458 W/m 18,8 km/h (3 Bft)
03.06.2015 11:24 17,2 C 15,6 C 65 % 0 lf 1020,5 hPa 0,0 l/m 2 min 0 min 434 W/m 27,2 km/h (4 Bft)
03.06.2015 11:26 17,2 C 16,1 C 66 % 0 lf 1020,5 hPa 0,0 l/m 2 min 0 min 605 W/m 25,1 km/h (4 Bft)
03.06.2015 11:28 17,4 C 16,7 C 67 % 0 lf 1020,5 hPa 0,0 l/m 2 min 0 min 936 W/m 20,9 km/h (4 Bft)
03.06.2015 11:30 17,6 C 16,7 C 65 % 0 lf 1020,5 hPa 0,0 l/m 2 min 0 min 980 W/m 29,3 km/h (5 Bft)
03.06.2015 11:32 17,8 C 16,7 C 66 % 0 lf 1020,6 hPa 0,0 l/m 2 min 0 min 1023 W/m 35,6 km/h (5 Bft)
03.06.2015 11:34 18,0 C 17,2 C 64 % 0 lf 1020,6 hPa 0,0 l/m 2 min 0 min 1035 W/m 41,8 km/h (6 Bft)
03.06.2015 11:36 18,3 C 17,8 C 63 % 0 lf 1020,6 hPa 0,0 l/m 2 min 0 min 1055 W/m 27,2 km/h (4 Bft)
03.06.2015 11:38 18,5 C 17,8 C 63 % 0 lf 1020,6 hPa 0,0 l/m 2 min 0 min 998 W/m 27,2 km/h (4 Bft)
03.06.2015 11:40 18,7 C 17,8 C 64 % 0 lf 1020,6 hPa 0,0 l/m 2 min 0 min 1046 W/m 25,1 km/h (4 Bft)
03.06.2015 11:42 18,9 C 17,8 C 61 % 0 lf 1020,6 hPa 0,0 l/m 2 min 0 min 618 W/m 35,6 km/h (5 Bft)
03.06.2015 11:44 19,0 C 17,8 C 61 % 0 lf 1020,7 hPa 0,0 l/m 2 min 0 min 462 W/m 25,1 km/h (4 Bft)
03.06.2015 11:46 19,2 C 17,8 C 62 % 0 lf 1020,7 hPa 0,0 l/m 2 min 0 min 447 W/m 14,6 km/h (3 Bft)
03.06.2015 11:48 19,2 C 17,8 C 62 % 0 lf 1020,8 hPa 0,0 l/m 0 min 0 min 333 W/m 18,8 km/h (3 Bft)
03.06.2015 11:50 19,3 C 17,8 C 60 % 0 lf 1020,8 hPa 0,0 l/m 0 min 0 min 382 W/m 23,0 km/h (4 Bft)
03.06.2015 11:52 19,2 C 17,2 C 60 % 0 lf 1020,8 hPa 0,0 l/m 0 min 0 min 281 W/m 20,9 km/h (4 Bft)
03.06.2015 11:54 19,2 C 17,2 C 61 % 0 lf 1020,8 hPa 0,0 l/m 0 min 0 min 236 W/m 23,0 km/h (4 Bft)
03.06.2015 11:56 19,1 C 16,7 C 60 % 0 lf 1020,9 hPa 0,0 l/m 0 min 0 min 224 W/m 20,9 km/h (4 Bft)
03.06.2015 11:58 18,9 C 16,1 C 58 % 0 lf 1021,0 hPa 0,0 l/m 0 min 0 min 232 W/m 20,9 km/h (4 Bft)
03.06.2015 12:00 18,8 C 16,1 C 58 % 0 lf 1021,0 hPa 0,0 l/m 0 min 0 min 266 W/m 27,2 km/h (4 Bft)
03.06.2015 12:02 18,6 C 16,1 C 58 % 0 lf 1021,1 hPa 0,0 l/m 0 min 0 min 342 W/m 23,0 km/h (4 Bft)
03.06.2015 12:06 18,4 C 16,7 C 60 % 0 lf 1021,2 hPa 0,0 l/m 2 min 0 min 415 W/m 23,0 km/h (4 Bft)
03.06.2015 12:08 18,4 C 16,7 C 60 % 0 lf 1021,2 hPa 0,0 l/m 2 min 0 min 439 W/m 37,7 km/h (5 Bft)
03.06.2015 12:10 18,5 C 16,7 C 60 % 0 lf 1021,2 hPa 0,0 l/m 2 min 0 min 555 W/m 23,0 km/h (4 Bft)
03.06.2015 12:12 18,6 C 17,2 C 60 % 0 lf 1021,2 hPa 0,0 l/m 2 min 0 min 932 W/m 25,1 km/h (4 Bft)
03.06.2015 12:14 18,7 C 17,2 C 60 % 0 lf 1021,2 hPa 0,0 l/m 2 min 0 min 925 W/m 20,9 km/h (4 Bft)
03.06.2015 12:16 18,8 C 17,2 C 59 % 0 lf 1021,2 hPa 0,0 l/m 2 min 0 min 449 W/m 25,1 km/h (4 Bft)
03.06.2015 12:18 18,9 C 17,8 C 61 % 0 lf 1021,2 hPa 0,0 l/m 0 min 0 min 188 W/m 25,1 km/h (4 Bft)
03.06.2015 12:20 19,1 C 17,8 C 58 % 0 lf 1021,1 hPa 0,0 l/m 2 min 0 min 587 W/m 31,4 km/h (5 Bft)
03.06.2015 12:22 19,3 C 18,3 C 57 % 0 lf 1021,2 hPa 0,0 l/m 2 min 0 min 955 W/m 31,4 km/h (5 Bft)
03.06.2015 12:24 19,4 C 18,3 C 58 % 0 lf 1021,3 hPa 0,0 l/m 2 min 0 min 1030 W/m 29,3 km/h (5 Bft)
03.06.2015 12:26 19,5 C 18,9 C 57 % 0 lf 1021,3 hPa 0,0 l/m 2 min 0 min 448 W/m 31,4 km/h (5 Bft)
03.06.2015 12:28 19,6 C 18,9 C 57 % 0 lf 1021,3 hPa 0,0 l/m 2 min 0 min 1131 W/m 25,1 km/h (4 Bft)
03.06.2015 12:30 19,7 C 18,3 C 55 % 0 lf 1021,3 hPa 0,0 l/m 2 min 0 min 1121 W/m 25,1 km/h (4 Bft)
03.06.2015 12:32 19,7 C 17,8 C 56 % 0 lf 1021,3 hPa 0,0 l/m 2 min 0 min 665 W/m 23,0 km/h (4 Bft)
03.06.2015 12:34 19,7 C 17,8 C 55 % 0 lf 1021,3 hPa 0,0 l/m 0 min 0 min 316 W/m 23,0 km/h (4 Bft)
03.06.2015 12:36 19,6 C 17,8 C 55 % 0 lf 1021,3 hPa 0,0 l/m 0 min 0 min 327 W/m 27,2 km/h (4 Bft)
03.06.2015 12:38 19,4 C 17,2 C 55 % 0 lf 1021,5 hPa 0,0 l/m 0 min 0 min 318 W/m 25,1 km/h (4 Bft)
03.06.2015 12:40 19,3 C 17,2 C 56 % 0 lf 1021,5 hPa 0,0 l/m 0 min 0 min 339 W/m 20,9 km/h (4 Bft)
03.06.2015 12:42 19,2 C 17,2 C 57 % 0 lf 1021,5 hPa 0,0 l/m 0 min 0 min 349 W/m 27,2 km/h (4 Bft)
03.06.2015 12:44 19,2 C 17,2 C 57 % 0 lf 1021,5 hPa 0,0 l/m 0 min 0 min 343 W/m 23,0 km/h (4 Bft)
03.06.2015 12:46 19,1 C 17,2 C 57 % 0 lf 1021,5 hPa 0,0 l/m 0 min 0 min 330 W/m 23,0 km/h (4 Bft)
03.06.2015 12:48 19,0 C 17,2 C 57 % 0 lf 1021,5 hPa 0,0 l/m 0 min 0 min 321 W/m 20,9 km/h (4 Bft)
03.06.2015 12:50 18,9 C 18,3 C 58 % 0 lf 1021,5 hPa 0,0 l/m 2 min 0 min 735 W/m 25,1 km/h (4 Bft)
03.06.2015 12:52 18,9 C 19,4 C 59 % 0 lf 1021,5 hPa 0,0 l/m 2 min 0 min 1067 W/m 20,9 km/h (4 Bft)
03.06.2015 12:54 19,1 C 18,9 C 59 % 0 lf 1021,5 hPa 0,0 l/m 2 min 0 min 750 W/m 27,2 km/h (4 Bft)
03.06.2015 12:56 19,1 C 18,3 C 58 % 0 lf 1021,5 hPa 0,0 l/m 0 min 0 min 282 W/m 25,1 km/h (4 Bft)
03.06.2015 12:58 19,1 C 17,8 C 57 % 0 lf 1021,6 hPa 0,0 l/m 0 min 0 min 265 W/m 18,8 km/h (3 Bft)
03.06.2015 13:00 19,1 C 17,2 C 56 % 0 lf 1021,6 hPa 0,0 l/m 0 min 0 min 260 W/m 27,2 km/h (4 Bft)
03.06.2015 13:02 19,0 C 17,2 C 57 % 0 lf 1021,6 hPa 0,0 l/m 0 min 0 min 283 W/m 20,9 km/h (4 Bft)
03.06.2015 13:04 18,9 C 17,2 C 57 % 0 lf 1021,6 hPa 0,0 l/m 0 min 0 min 330 W/m 33,5 km/h (5 Bft)
03.06.2015 13:06 18,9 C 17,2 C 57 % 0 lf 1021,7 hPa 0,0 l/m 0 min 0 min 337 W/m 33,5 km/h (5 Bft)
03.06.2015 13:08 18,8 C 17,2 C 57 % 0 lf 1021,7 hPa 0,0 l/m 0 min 0 min 314 W/m 18,8 km/h (3 Bft)
03.06.2015 13:10 18,8 C 17,2 C 58 % 0 lf 1021,6 hPa 0,0 l/m 0 min 0 min 330 W/m 20,9 km/h (4 Bft)
03.06.2015 13:12 18,7 C 17,2 C 58 % 0 lf 1021,7 hPa 0,0 l/m 2 min 0 min 424 W/m 20,9 km/h (4 Bft)
03.06.2015 13:14 18,7 C 17,2 C 58 % 0 lf 1021,7 hPa 0,0 l/m 0 min 0 min 380 W/m 18,8 km/h (3 Bft)
03.06.2015 13:16 18,7 C 17,2 C 58 % 0 lf 1021,8 hPa 0,0 l/m 0 min 0 min 374 W/m 20,9 km/h (4 Bft)
03.06.2015 13:18 18,7 C 17,2 C 58 % 0 lf 1021,7 hPa 0,0 l/m 0 min 0 min 362 W/m 27,2 km/h (4 Bft)
03.06.2015 13:20 18,7 C 17,2 C 59 % 0 lf 1021,8 hPa 0,0 l/m 0 min 0 min 338 W/m 25,1 km/h (4 Bft)
03.06.2015 13:22 18,7 C 17,2 C 58 % 0 lf 1021,8 hPa 0,0 l/m 0 min 0 min 320 W/m 23,0 km/h (4 Bft)
03.06.2015 13:24 18,7 C 17,2 C 58 % 0 lf 1021,9 hPa 0,0 l/m 0 min 0 min 342 W/m 18,8 km/h (3 Bft)
03.06.2015 13:26 18,6 C 17,2 C 58 % 0 lf 1021,8 hPa 0,0 l/m 0 min 0 min 384 W/m 27,2 km/h (4 Bft)
03.06.2015 13:28 18,7 C 17,8 C 60 % 0 lf 1022,0 hPa 0,0 l/m 0 min 0 min 421 W/m 23,0 km/h (4 Bft)
03.06.2015 13:30 18,7 C 17,8 C 59 % 0 lf 1022,0 hPa 0,0 l/m 0 min 0 min 402 W/m 27,2 km/h (4 Bft)
03.06.2015 13:32 18,7 C 17,8 C 59 % 0 lf 1022,0 hPa 0,0 l/m 2 min 0 min 424 W/m 10,5 km/h (2 Bft)
03.06.2015 13:34 18,7 C 17,8 C 60 % 0 lf 1022,0 hPa 0,0 l/m 2 min 0 min 440 W/m 20,9 km/h (4 Bft)
03.06.2015 13:36 18,7 C 17,8 C 60 % 0 lf 1022,1 hPa 0,0 l/m 0 min 0 min 384 W/m 16,7 km/h (3 Bft)
03.06.2015 13:38 18,8 C 17,8 C 60 % 0 lf 1022,1 hPa 0,0 l/m 0 min 0 min 400 W/m 14,6 km/h (3 Bft)
03.06.2015 13:40 18,8 C 18,3 C 58 % 0 lf 1022,1 hPa 0,0 l/m 2 min 0 min 458 W/m 14,6 km/h (3 Bft)
03.06.2015 13:42 18,9 C 18,3 C 58 % 0 lf 1022,1 hPa 0,0 l/m 2 min 0 min 493 W/m 14,6 km/h (3 Bft)
03.06.2015 13:44 18,9 C 18,3 C 58 % 0 lf 1022,2 hPa 0,0 l/m 2 min 0 min 474 W/m 23,0 km/h (4 Bft)
03.06.2015 13:46 19,1 C 18,3 C 59 % 0 lf 1022,2 hPa 0,0 l/m 2 min 0 min 483 W/m 20,9 km/h (4 Bft)
03.06.2015 13:48 19,1 C 18,3 C 58 % 0 lf 1022,2 hPa 0,0 l/m 0 min 0 min 366 W/m 18,8 km/h (3 Bft)
03.06.2015 13:50 19,1 C 18,3 C 58 % 0 lf 1022,3 hPa 0,0 l/m 0 min 0 min 354 W/m 20,9 km/h (4 Bft)
03.06.2015 13:52 19,2 C 17,8 C 58 % 0 lf 1022,3 hPa 0,0 l/m 0 min 0 min 353 W/m 18,8 km/h (3 Bft)
03.06.2015 13:54 19,2 C 17,8 C 57 % 0 lf 1022,3 hPa 0,0 l/m 0 min 0 min 366 W/m 14,6 km/h (3 Bft)
03.06.2015 13:56 19,2 C 18,3 C 59 % 0 lf 1022,4 hPa 0,0 l/m 2 min 0 min 513 W/m 14,6 km/h (3 Bft)
03.06.2015 13:58 19,3 C 18,3 C 60 % 0 lf 1022,4 hPa 0,0 l/m 2 min 0 min 827 W/m 14,6 km/h (3 Bft)
03.06.2015 14:00 19,5 C 18,3 C 58 % 0 lf 1022,4 hPa 0,0 l/m 2 min 0 min 818 W/m 27,2 km/h (4 Bft)
03.06.2015 14:02 19,6 C 18,9 C 56 % 0 lf 1022,5 hPa 0,0 l/m 2 min 0 min 506 W/m 23,0 km/h (4 Bft)
03.06.2015 14:04 19,7 C 18,9 C 56 % 0 lf 1022,5 hPa 0,0 l/m 2 min 0 min 493 W/m 18,8 km/h (3 Bft)
03.06.2015 14:06 19,7 C 17,2 C 56 % 0 lf 1022,5 hPa 0,0 l/m 2 min 0 min 504 W/m 31,4 km/h (5 Bft)
03.06.2015 14:08 19,6 C 16,7 C 57 % 0 lf 1022,6 hPa 0,0 l/m 2 min 0 min 482 W/m 25,1 km/h (4 Bft)
03.06.2015 14:10 19,6 C 16,7 C 56 % 0 lf 1022,5 hPa 0,0 l/m 2 min 0 min 449 W/m 27,2 km/h (4 Bft)
03.06.2015 14:12 19,4 C 16,1 C 57 % 0 lf 1022,5 hPa 0,0 l/m 0 min 0 min 362 W/m 18,8 km/h (3 Bft)
03.06.2015 14:14 19,3 C 15,6 C 57 % 0 lf 1022,6 hPa 0,0 l/m 0 min 0 min 347 W/m 14,6 km/h (3 Bft)
03.06.2015 14:16 19,2 C 15,0 C 57 % 0 lf 1022,6 hPa 0,0 l/m 0 min 0 min 398 W/m 20,9 km/h (4 Bft)
03.06.2015 14:18 19,2 C 15,6 C 57 % 0 lf 1022,7 hPa 0,0 l/m 2 min 0 min 537 W/m 23,0 km/h (4 Bft)
03.06.2015 14:20 19,2 C 15,6 C 57 % 0 lf 1022,7 hPa 0,0 l/m 2 min 0 min 728 W/m 27,2 km/h (4 Bft)
03.06.2015 14:22 19,2 C 16,1 C 59 % 0 lf 1022,8 hPa 0,0 l/m 2 min 0 min 605 W/m 29,3 km/h (5 Bft)
03.06.2015 14:24 19,2 C 16,1 C 58 % 0 lf 1022,8 hPa 0,0 l/m 2 min 0 min 506 W/m 23,0 km/h (4 Bft)
03.06.2015 14:26 19,3 C 16,1 C 57 % 0 lf 1022,8 hPa 0,0 l/m 2 min 0 min 707 W/m 27,2 km/h (4 Bft)
03.06.2015 14:28 19,4 C 16,7 C 57 % 0 lf 1022,8 hPa 0,0 l/m 2 min 0 min 438 W/m 20,9 km/h (4 Bft)
03.06.2015 14:30 19,4 C 16,7 C 58 % 0 lf 1022,8 hPa 0,0 l/m 0 min 0 min 413 W/m 18,8 km/h (3 Bft)
03.06.2015 14:32 19,5 C 16,7 C 56 % 0 lf 1022,8 hPa 0,0 l/m 0 min 0 min 395 W/m 27,2 km/h (4 Bft)
03.06.2015 14:34 19,4 C 16,7 C 57 % 0 lf 1022,9 hPa 0,0 l/m 0 min 0 min 411 W/m 25,1 km/h (4 Bft)
03.06.2015 14:36 19,4 C 16,7 C 57 % 0 lf 1022,9 hPa 0,0 l/m 2 min 0 min 454 W/m 20,9 km/h (4 Bft)
03.06.2015 14:38 19,5 C 16,7 C 59 % 0 lf 1022,9 hPa 0,0 l/m 2 min 0 min 503 W/m 14,6 km/h (3 Bft)
03.06.2015 14:40 19,6 C 17,2 C 60 % 0 lf 1022,9 hPa 0,0 l/m 2 min 0 min 573 W/m 20,9 km/h (4 Bft)
03.06.2015 14:42 19,8 C 17,8 C 58 % 0 lf 1022,9 hPa 0,0 l/m 2 min 0 min 649 W/m 20,9 km/h (4 Bft)
03.06.2015 14:44 19,8 C 17,8 C 56 % 0 lf 1022,9 hPa 0,0 l/m 2 min 0 min 649 W/m 18,8 km/h (3 Bft)
03.06.2015 14:46 19,9 C 17,8 C 57 % 0 lf 1022,9 hPa 0,0 l/m 2 min 0 min 845 W/m 20,9 km/h (4 Bft)
03.06.2015 14:48 20,1 C 17,8 C 57 % 0 lf 1022,9 hPa 0,0 l/m 2 min 0 min 1058 W/m 25,1 km/h (4 Bft)
03.06.2015 14:50 20,2 C 17,8 C 54 % 0 lf 1023,0 hPa 0,0 l/m 2 min 0 min 877 W/m 23,0 km/h (4 Bft)
03.06.2015 14:52 20,4 C 18,3 C 53 % 0 lf 1022,9 hPa 0,0 l/m 2 min 0 min 562 W/m 23,0 km/h (4 Bft)
03.06.2015 14:54 20,5 C 18,3 C 56 % 0 lf 1023,0 hPa 0,0 l/m 2 min 0 min 490 W/m 27,2 km/h (4 Bft)
03.06.2015 14:56 20,6 C 18,3 C 55 % 0 lf 1023,0 hPa 0,0 l/m 2 min 0 min 490 W/m 18,8 km/h (3 Bft)
03.06.2015 14:58 20,6 C 18,3 C 54 % 0 lf 1023,0 hPa 0,0 l/m 2 min 0 min 431 W/m 20,9 km/h (4 Bft)
03.06.2015 15:00 20,6 C 17,8 C 53 % 0 lf 1023,1 hPa 0,0 l/m 2 min 0 min 479 W/m 18,8 km/h (3 Bft)
03.06.2015 15:02 20,6 C 18,3 C 53 % 0 lf 1023,0 hPa 0,0 l/m 2 min 0 min 748 W/m 18,8 km/h (3 Bft)
03.06.2015 15:04 20,7 C 18,3 C 55 % 0 lf 1023,0 hPa 0,0 l/m 2 min 0 min 956 W/m 23,0 km/h (4 Bft)
03.06.2015 15:06 20,8 C 18,3 C 54 % 0 lf 1023,1 hPa 0,0 l/m 2 min 0 min 1090 W/m 31,4 km/h (5 Bft)
03.06.2015 15:08 20,7 C 18,3 C 52 % 0 lf 1023,2 hPa 0,0 l/m 2 min 0 min 820 W/m 23,0 km/h (4 Bft)
03.06.2015 15:10 20,7 C 17,8 C 53 % 0 lf 1023,2 hPa 0,0 l/m 0 min 0 min 381 W/m 23,0 km/h (4 Bft)
03.06.2015 15:12 20,6 C 17,8 C 53 % 0 lf 1023,2 hPa 0,0 l/m 0 min 0 min 375 W/m 20,9 km/h (4 Bft)
03.06.2015 15:14 20,4 C 17,8 C 53 % 0 lf 1023,2 hPa 0,0 l/m 0 min 0 min 346 W/m 18,8 km/h (3 Bft)
03.06.2015 15:16 20,4 C 17,8 C 54 % 0 lf 1023,2 hPa 0,0 l/m 0 min 0 min 340 W/m 20,9 km/h (4 Bft)
03.06.2015 15:18 20,3 C 17,8 C 53 % 0 lf 1023,2 hPa 0,0 l/m 0 min 0 min 380 W/m 18,8 km/h (3 Bft)
03.06.2015 15:20 20,3 C 17,8 C 53 % 0 lf 1023,2 hPa 0,0 l/m 2 min 0 min 414 W/m 18,8 km/h (3 Bft)
03.06.2015 15:22 20,2 C 17,8 C 55 % 0 lf 1023,2 hPa 0,0 l/m 2 min 0 min 472 W/m 20,9 km/h (4 Bft)
03.06.2015 15:24 20,2 C 18,3 C 55 % 0 lf 1023,2 hPa 0,0 l/m 2 min 0 min 490 W/m 16,7 km/h (3 Bft)
03.06.2015 15:26 20,2 C 18,3 C 53 % 0 lf 1023,2 hPa 0,0 l/m 0 min 0 min 359 W/m 20,9 km/h (4 Bft)
03.06.2015 15:28 20,1 C 17,8 C 53 % 0 lf 1023,2 hPa 0,0 l/m 0 min 0 min 290 W/m 16,7 km/h (3 Bft)
03.06.2015 15:30 19,9 C 17,2 C 54 % 0 lf 1023,1 hPa 0,0 l/m 0 min 0 min 261 W/m 18,8 km/h (3 Bft)
03.06.2015 15:32 19,9 C 17,2 C 54 % 0 lf 1023,2 hPa 0,0 l/m 0 min 0 min 251 W/m 14,6 km/h (3 Bft)
03.06.2015 15:34 19,8 C 17,2 C 54 % 0 lf 1023,2 hPa 0,0 l/m 0 min 0 min 238 W/m 18,8 km/h (3 Bft)
03.06.2015 15:36 19,8 C 17,2 C 55 % 0 lf 1023,3 hPa 0,0 l/m 0 min 0 min 277 W/m 16,7 km/h (3 Bft)
03.06.2015 15:38 19,7 C 17,2 C 55 % 0 lf 1023,3 hPa 0,0 l/m 0 min 0 min 313 W/m 23,0 km/h (4 Bft)
03.06.2015 15:40 19,6 C 17,2 C 55 % 0 lf 1023,3 hPa 0,0 l/m 0 min 0 min 350 W/m 25,1 km/h (4 Bft)
03.06.2015 15:42 19,6 C 17,8 C 55 % 0 lf 1023,3 hPa 0,0 l/m 0 min 0 min 355 W/m 16,7 km/h (3 Bft)
03.06.2015 15:44 19,5 C 17,8 C 55 % 0 lf 1023,4 hPa 0,0 l/m 0 min 0 min 348 W/m 14,6 km/h (3 Bft)
03.06.2015 15:46 19,5 C 17,8 C 56 % 0 lf 1023,3 hPa 0,0 l/m 0 min 0 min 338 W/m 14,6 km/h (3 Bft)
03.06.2015 15:48 19,5 C 17,8 C 55 % 0 lf 1023,3 hPa 0,0 l/m 0 min 0 min 338 W/m 16,7 km/h (3 Bft)
03.06.2015 15:50 19,5 C 17,8 C 56 % 0 lf 1023,3 hPa 0,0 l/m 0 min 0 min 346 W/m 20,9 km/h (4 Bft)
03.06.2015 15:52 19,4 C 17,8 C 56 % 0 lf 1023,4 hPa 0,0 l/m 2 min 0 min 392 W/m 16,7 km/h (3 Bft)
03.06.2015 15:54 19,6 C 18,3 C 57 % 0 lf 1023,4 hPa 0,0 l/m 2 min 0 min 392 W/m 18,8 km/h (3 Bft)
03.06.2015 15:56 19,7 C 18,9 C 57 % 0 lf 1023,4 hPa 0,0 l/m 2 min 0 min 400 W/m 18,8 km/h (3 Bft)
03.06.2015 15:58 19,8 C 18,9 C 55 % 0 lf 1023,3 hPa 0,0 l/m 2 min 0 min 664 W/m 10,5 km/h (2 Bft)
03.06.2015 16:00 20,0 C 18,9 C 56 % 0 lf 1023,4 hPa 0,0 l/m 2 min 0 min 998 W/m 16,7 km/h (3 Bft)
03.06.2015 16:02 20,2 C 18,9 C 56 % 0 lf 1023,4 hPa 0,0 l/m 2 min 0 min 765 W/m 16,7 km/h (3 Bft)
03.06.2015 16:04 20,4 C 18,9 C 56 % 0 lf 1023,4 hPa 0,0 l/m 2 min 0 min 538 W/m 16,7 km/h (3 Bft)
03.06.2015 16:06 20,5 C 18,9 C 54 % 0 lf 1023,5 hPa 0,0 l/m 2 min 0 min 484 W/m 18,8 km/h (3 Bft)
03.06.2015 16:08 20,6 C 18,3 C 54 % 0 lf 1023,4 hPa 0,0 l/m 0 min 0 min 347 W/m 10,5 km/h (2 Bft)
03.06.2015 16:10 20,6 C 18,3 C 53 % 0 lf 1023,4 hPa 0,0 l/m 0 min 0 min 333 W/m 16,7 km/h (3 Bft)
03.06.2015 16:12 20,7 C 18,3 C 55 % 0 lf 1023,4 hPa 0,0 l/m 0 min 0 min 344 W/m 14,6 km/h (3 Bft)
03.06.2015 16:14 20,7 C 18,9 C 53 % 0 lf 1023,4 hPa 0,0 l/m 2 min 0 min 410 W/m 16,7 km/h (3 Bft)
03.06.2015 16:16 20,7 C 18,9 C 53 % 0 lf 1023,4 hPa 0,0 l/m 2 min 0 min 944 W/m 14,6 km/h (3 Bft)
03.06.2015 16:18 20,8 C 19,4 C 53 % 0 lf 1023,5 hPa 0,0 l/m 2 min 0 min 807 W/m 18,8 km/h (3 Bft)
03.06.2015 16:20 20,9 C 18,9 C 52 % 0 lf 1023,5 hPa 0,0 l/m 2 min 0 min 484 W/m 14,6 km/h (3 Bft)
03.06.2015 16:22 20,9 C 18,9 C 53 % 0 lf 1023,5 hPa 0,0 l/m 0 min 0 min 326 W/m 18,8 km/h (3 Bft)
03.06.2015 16:24 20,9 C 18,9 C 53 % 0 lf 1023,5 hPa 0,0 l/m 0 min 0 min 261 W/m 12,6 km/h (3 Bft)
03.06.2015 16:26 20,9 C 18,3 C 53 % 0 lf 1023,5 hPa 0,0 l/m 0 min 0 min 264 W/m 16,7 km/h (3 Bft)
03.06.2015 16:28 20,8 C 18,3 C 53 % 0 lf 1023,5 hPa 0,0 l/m 0 min 0 min 271 W/m 16,7 km/h (3 Bft)
03.06.2015 16:30 20,8 C 18,3 C 54 % 0 lf 1023,5 hPa 0,0 l/m 0 min 0 min 281 W/m 8,4 km/h (2 Bft)
03.06.2015 16:32 20,7 C 18,3 C 55 % 0 lf 1023,5 hPa 0,0 l/m 0 min 0 min 311 W/m 12,6 km/h (3 Bft)
03.06.2015 16:34 20,7 C 18,9 C 54 % 0 lf 1023,6 hPa 0,0 l/m 2 min 0 min 399 W/m 16,7 km/h (3 Bft)
03.06.2015 16:36 20,7 C 18,3 C 53 % 0 lf 1023,5 hPa 0,0 l/m 2 min 0 min 355 W/m 10,5 km/h (2 Bft)
03.06.2015 16:38 20,6 C 18,3 C 54 % 0 lf 1023,5 hPa 0,0 l/m 2 min 0 min 363 W/m 10,5 km/h (2 Bft)
03.06.2015 16:40 20,6 C 18,3 C 55 % 0 lf 1023,5 hPa 0,0 l/m 2 min 0 min 378 W/m 10,5 km/h (2 Bft)
03.06.2015 16:42 20,6 C 18,3 C 53 % 0 lf 1023,5 hPa 0,0 l/m 0 min 0 min 332 W/m 18,8 km/h (3 Bft)
03.06.2015 16:44 20,6 C 18,3 C 54 % 0 lf 1023,5 hPa 0,0 l/m 2 min 0 min 341 W/m 16,7 km/h (3 Bft)
03.06.2015 16:46 20,5 C 18,3 C 54 % 0 lf 1023,5 hPa 0,0 l/m 0 min 0 min 292 W/m 16,7 km/h (3 Bft)
03.06.2015 16:48 20,5 C 18,3 C 55 % 0 lf 1023,5 hPa 0,0 l/m 0 min 0 min 289 W/m 12,6 km/h (3 Bft)
03.06.2015 16:50 20,4 C 18,3 C 53 % 0 lf 1023,5 hPa 0,0 l/m 0 min 0 min 305 W/m 12,6 km/h (3 Bft)
03.06.2015 16:52 20,4 C 18,3 C 53 % 0 lf 1023,5 hPa 0,0 l/m 2 min 0 min 351 W/m 12,6 km/h (3 Bft)
03.06.2015 16:54 20,3 C 18,3 C 54 % 0 lf 1023,5 hPa 0,0 l/m 2 min 0 min 459 W/m 14,6 km/h (3 Bft)
03.06.2015 16:56 20,4 C 18,3 C 55 % 0 lf 1023,6 hPa 0,0 l/m 2 min 0 min 825 W/m 12,6 km/h (3 Bft)
03.06.2015 16:58 20,4 C 18,9 C 54 % 0 lf 1023,6 hPa 0,0 l/m 2 min 0 min 470 W/m 12,6 km/h (3 Bft)
03.06.2015 17:00 20,4 C 18,9 C 55 % 0 lf 1023,6 hPa 0,0 l/m 2 min 0 min 344 W/m 10,5 km/h (2 Bft)
03.06.2015 17:02 20,4 C 18,9 C 55 % 0 lf 1023,6 hPa 0,0 l/m 0 min 0 min 295 W/m 12,6 km/h (3 Bft)
03.06.2015 17:04 20,4 C 18,3 C 54 % 0 lf 1023,6 hPa 0,0 l/m 0 min 0 min 276 W/m 18,8 km/h (3 Bft)
03.06.2015 17:06 20,4 C 18,3 C 53 % 0 lf 1023,6 hPa 0,0 l/m 0 min 0 min 290 W/m 18,8 km/h (3 Bft)
03.06.2015 17:08 20,4 C 18,3 C 54 % 0 lf 1023,6 hPa 0,0 l/m 2 min 0 min 327 W/m 12,6 km/h (3 Bft)
03.06.2015 17:10 20,4 C 17,8 C 54 % 0 lf 1023,6 hPa 0,0 l/m 2 min 0 min 393 W/m 10,5 km/h (2 Bft)
03.06.2015 17:12 20,3 C 17,2 C 54 % 0 lf 1023,7 hPa 0,0 l/m 2 min 0 min 408 W/m 10,5 km/h (2 Bft)
03.06.2015 17:14 20,4 C 16,7 C 56 % 0 lf 1023,6 hPa 0,0 l/m 2 min 0 min 414 W/m 10,5 km/h (2 Bft)
03.06.2015 17:16 20,4 C 16,1 C 54 % 0 lf 1023,7 hPa 0,0 l/m 2 min 0 min 629 W/m 20,9 km/h (4 Bft)
03.06.2015 17:18 20,3 C 15,6 C 55 % 0 lf 1023,6 hPa 0,0 l/m 2 min 0 min 551 W/m 16,7 km/h (3 Bft)
03.06.2015 17:20 20,3 C 15,0 C 55 % 0 lf 1023,6 hPa 0,0 l/m 2 min 0 min 314 W/m 16,7 km/h (3 Bft)
03.06.2015 17:22 20,3 C 14,4 C 54 % 0 lf 1023,6 hPa 0,0 l/m 0 min 0 min 211 W/m 10,5 km/h (2 Bft)
03.06.2015 17:24 20,2 C 14,4 C 54 % 0 lf 1023,6 hPa 0,0 l/m 0 min 0 min 210 W/m 16,7 km/h (3 Bft)
03.06.2015 17:26 20,2 C 14,4 C 54 % 0 lf 1023,7 hPa 0,0 l/m 0 min 0 min 208 W/m 14,6 km/h (3 Bft)
03.06.2015 17:28 20,1 C 15,6 C 54 % 0 lf 1023,6 hPa 0,0 l/m 0 min 0 min 220 W/m 12,6 km/h (3 Bft)
03.06.2015 17:30 20,0 C 17,8 C 55 % 0 lf 1023,6 hPa 0,0 l/m 0 min 0 min 244 W/m 10,5 km/h (2 Bft)
03.06.2015 17:32 20,0 C 17,2 C 56 % 0 lf 1023,7 hPa 0,0 l/m 0 min 0 min 269 W/m 14,6 km/h (3 Bft)
03.06.2015 17:34 19,9 C 17,2 C 55 % 0 lf 1023,7 hPa 0,0 l/m 2 min 0 min 295 W/m 16,7 km/h (3 Bft)
03.06.2015 17:36 19,8 C 17,2 C 55 % 0 lf 1023,8 hPa 0,0 l/m 2 min 0 min 305 W/m 12,6 km/h (3 Bft)
03.06.2015 17:38 19,8 C 17,2 C 56 % 0 lf 1023,8 hPa 0,0 l/m 2 min 0 min 307 W/m 20,9 km/h (4 Bft)
03.06.2015 17:40 19,8 C 17,2 C 55 % 0 lf 1023,8 hPa 0,0 l/m 2 min 0 min 438 W/m 16,7 km/h (3 Bft)
03.06.2015 17:42 19,8 C 17,8 C 55 % 0 lf 1023,6 hPa 0,0 l/m 2 min 0 min 614 W/m 10,5 km/h (2 Bft)
03.06.2015 17:44 19,8 C 17,8 C 55 % 0 lf 1023,6 hPa 0,0 l/m 2 min 0 min 524 W/m 10,5 km/h (2 Bft)
03.06.2015 17:46 19,8 C 17,8 C 56 % 0 lf 1023,7 hPa 0,0 l/m 2 min 0 min 422 W/m 16,7 km/h (3 Bft)
03.06.2015 17:48 19,8 C 17,8 C 54 % 0 lf 1023,7 hPa 0,0 l/m 2 min 0 min 390 W/m 12,6 km/h (3 Bft)
03.06.2015 17:50 19,8 C 17,8 C 56 % 0 lf 1023,8 hPa 0,0 l/m 2 min 0 min 281 W/m 12,6 km/h (3 Bft)
03.06.2015 17:52 19,8 C 17,8 C 55 % 0 lf 1023,7 hPa 0,0 l/m 2 min 0 min 397 W/m 12,6 km/h (3 Bft)
03.06.2015 17:54 19,9 C 17,8 C 56 % 0 lf 1023,7 hPa 0,0 l/m 2 min 0 min 276 W/m 8,4 km/h (2 Bft)
03.06.2015 17:56 19,8 C 17,8 C 55 % 0 lf 1023,7 hPa 0,0 l/m 0 min 0 min 249 W/m 10,5 km/h (2 Bft)
03.06.2015 17:58 19,8 C 17,8 C 56 % 0 lf 1023,7 hPa 0,0 l/m 2 min 0 min 277 W/m 18,8 km/h (3 Bft)
03.06.2015 18:00 19,8 C 17,8 C 56 % 0 lf 1023,6 hPa 0,0 l/m 2 min 0 min 269 W/m 12,6 km/h (3 Bft)
03.06.2015 18:02 19,8 C 17,8 C 56 % 0 lf 1023,8 hPa 0,0 l/m 2 min 0 min 251 W/m 14,6 km/h (3 Bft)
03.06.2015 18:06 19,8 C 17,8 C 56 % 0 lf 1023,8 hPa 0,0 l/m 0 min 0 min 220 W/m 16,7 km/h (3 Bft)
03.06.2015 18:08 19,8 C 17,8 C 56 % 0 lf 1023,8 hPa 0,0 l/m 0 min 0 min 187 W/m 14,6 km/h (3 Bft)
03.06.2015 18:10 19,8 C 17,8 C 55 % 0 lf 1023,8 hPa 0,0 l/m 0 min 0 min 186 W/m 10,5 km/h (2 Bft)
03.06.2015 18:12 19,7 C 17,8 C 55 % 0 lf 1023,8 hPa 0,0 l/m 0 min 0 min 190 W/m 12,6 km/h (3 Bft)
03.06.2015 18:14 19,7 C 17,8 C 55 % 0 lf 1023,8 hPa 0,0 l/m 0 min 0 min 196 W/m 8,4 km/h (2 Bft)
03.06.2015 18:16 19,7 C 17,8 C 55 % 0 lf 1023,8 hPa 0,0 l/m 0 min 0 min 195 W/m 6,3 km/h (2 Bft)
03.06.2015 18:18 19,6 C 17,8 C 56 % 0 lf 1023,9 hPa 0,0 l/m 0 min 0 min 189 W/m 18,8 km/h (3 Bft)
03.06.2015 18:20 19,6 C 17,8 C 55 % 0 lf 1024,0 hPa 0,0 l/m 0 min 0 min 180 W/m 14,6 km/h (3 Bft)
03.06.2015 18:22 19,6 C 17,8 C 55 % 0 lf 1023,9 hPa 0,0 l/m 0 min 0 min 177 W/m 12,6 km/h (3 Bft)
03.06.2015 18:24 19,6 C 17,8 C 56 % 0 lf 1023,9 hPa 0,0 l/m 0 min 0 min 190 W/m 14,6 km/h (3 Bft)
03.06.2015 18:26 19,5 C 17,8 C 56 % 0 lf 1023,9 hPa 0,0 l/m 0 min 0 min 193 W/m 12,6 km/h (3 Bft)
03.06.2015 18:28 19,5 C 17,8 C 57 % 0 lf 1023,9 hPa 0,0 l/m 0 min 0 min 191 W/m 10,5 km/h (2 Bft)
03.06.2015 18:30 19,5 C 17,8 C 57 % 0 lf 1023,9 hPa 0,0 l/m 0 min 0 min 184 W/m 8,4 km/h (2 Bft)
03.06.2015 18:32 19,5 C 17,8 C 56 % 0 lf 1023,9 hPa 0,0 l/m 0 min 0 min 176 W/m 14,6 km/h (3 Bft)
03.06.2015 18:34 19,5 C 17,8 C 57 % 0 lf 1023,8 hPa 0,0 l/m 0 min 0 min 169 W/m 10,5 km/h (2 Bft)
03.06.2015 18:36 19,5 C 17,8 C 56 % 0 lf 1023,9 hPa 0,0 l/m 0 min 0 min 164 W/m 12,6 km/h (3 Bft)
03.06.2015 18:38 19,5 C 17,8 C 56 % 0 lf 1023,9 hPa 0,0 l/m 0 min 0 min 162 W/m 14,6 km/h (3 Bft)
03.06.2015 18:40 19,5 C 17,8 C 55 % 0 lf 1024,0 hPa 0,0 l/m 0 min 0 min 169 W/m 12,6 km/h (3 Bft)
03.06.2015 18:42 19,4 C 17,8 C 56 % 0 lf 1023,9 hPa 0,0 l/m 0 min 0 min 184 W/m 10,5 km/h (2 Bft)
03.06.2015 18:44 19,4 C 17,8 C 56 % 0 lf 1023,9 hPa 0,0 l/m 2 min 0 min 202 W/m 14,6 km/h (3 Bft)
03.06.2015 18:46 19,4 C 17,8 C 57 % 0 lf 1023,9 hPa 0,0 l/m 2 min 0 min 232 W/m 10,5 km/h (2 Bft)
03.06.2015 18:48 19,4 C 17,8 C 57 % 0 lf 1023,9 hPa 0,0 l/m 2 min 0 min 233 W/m 8,4 km/h (2 Bft)
03.06.2015 18:50 19,4 C 17,8 C 56 % 0 lf 1024,0 hPa 0,0 l/m 2 min 0 min 210 W/m 14,6 km/h (3 Bft)
03.06.2015 18:52 19,4 C 17,8 C 57 % 0 lf 1024,0 hPa 0,0 l/m 2 min 0 min 209 W/m 14,6 km/h (3 Bft)
03.06.2015 18:54 19,4 C 17,8 C 56 % 0 lf 1023,9 hPa 0,0 l/m 2 min 0 min 205 W/m 12,6 km/h (3 Bft)
03.06.2015 18:56 19,3 C 17,8 C 56 % 0 lf 1023,9 hPa 0,0 l/m 2 min 0 min 212 W/m 14,6 km/h (3 Bft)
03.06.2015 18:58 19,3 C 17,8 C 56 % 0 lf 1024,0 hPa 0,0 l/m 2 min 0 min 217 W/m 14,6 km/h (3 Bft)
03.06.2015 19:00 19,3 C 17,8 C 55 % 0 lf 1024,0 hPa 0,0 l/m 2 min 0 min 213 W/m 16,7 km/h (3 Bft)
03.06.2015 19:02 19,3 C 17,8 C 56 % 0 lf 1024,0 hPa 0,0 l/m 2 min 0 min 214 W/m 12,6 km/h (3 Bft)
03.06.2015 19:04 19,3 C 17,8 C 57 % 0 lf 1024,0 hPa 0,0 l/m 2 min 0 min 274 W/m 10,5 km/h (2 Bft)
03.06.2015 19:06 19,2 C 17,8 C 57 % 0 lf 1024,0 hPa 0,0 l/m 2 min 0 min 334 W/m 8,4 km/h (2 Bft)
03.06.2015 19:08 19,2 C 17,8 C 56 % 0 lf 1024,0 hPa 0,0 l/m 2 min 0 min 332 W/m 16,7 km/h (3 Bft)
03.06.2015 19:10 19,2 C 17,8 C 55 % 0 lf 1024,0 hPa 0,0 l/m 2 min 0 min 304 W/m 12,6 km/h (3 Bft)
03.06.2015 19:12 19,2 C 17,8 C 55 % 0 lf 1024,1 hPa 0,0 l/m 2 min 0 min 229 W/m 6,3 km/h (2 Bft)
03.06.2015 19:14 19,2 C 17,8 C 56 % 0 lf 1024,1 hPa 0,0 l/m 2 min 0 min 313 W/m 12,6 km/h (3 Bft)
03.06.2015 19:16 19,2 C 17,8 C 58 % 0 lf 1024,1 hPa 0,0 l/m 2 min 0 min 256 W/m 8,4 km/h (2 Bft)
03.06.2015 19:18 19,1 C 17,2 C 57 % 0 lf 1024,1 hPa 0,0 l/m 0 min 0 min 140 W/m 10,5 km/h (2 Bft)
03.06.2015 19:20 19,1 C 17,2 C 57 % 0 lf 1024,0 hPa 0,0 l/m 0 min 0 min 141 W/m 10,5 km/h (2 Bft)
03.06.2015 19:22 19,1 C 17,2 C 57 % 0 lf 1024,1 hPa 0,0 l/m 2 min 0 min 182 W/m 12,6 km/h (3 Bft)
03.06.2015 19:24 19,1 C 17,2 C 57 % 0 lf 1024,2 hPa 0,0 l/m 0 min 0 min 143 W/m 10,5 km/h (2 Bft)
03.06.2015 19:26 19,0 C 17,2 C 56 % 0 lf 1024,2 hPa 0,0 l/m 0 min 0 min 130 W/m 14,6 km/h (3 Bft)
03.06.2015 19:28 19,0 C 17,2 C 56 % 0 lf 1024,2 hPa 0,0 l/m 0 min 0 min 120 W/m 14,6 km/h (3 Bft)
03.06.2015 19:30 19,0 C 17,2 C 56 % 0 lf 1024,2 hPa 0,0 l/m 0 min 0 min 121 W/m 12,6 km/h (3 Bft)
03.06.2015 19:32 18,9 C 17,2 C 56 % 0 lf 1024,2 hPa 0,0 l/m 0 min 0 min 130 W/m 14,6 km/h (3 Bft)
03.06.2015 19:34 18,9 C 17,2 C 56 % 0 lf 1024,3 hPa 0,0 l/m 0 min 0 min 134 W/m 18,8 km/h (3 Bft)
03.06.2015 19:36 18,9 C 17,2 C 57 % 0 lf 1024,2 hPa 0,0 l/m 0 min 0 min 125 W/m 10,5 km/h (2 Bft)
03.06.2015 19:38 18,8 C 17,2 C 58 % 0 lf 1024,3 hPa 0,0 l/m 0 min 0 min 119 W/m 8,4 km/h (2 Bft)
03.06.2015 19:40 18,8 C 17,2 C 58 % 0 lf 1024,3 hPa 0,0 l/m 0 min 0 min 121 W/m 6,3 km/h (2 Bft)
03.06.2015 19:42 18,8 C 17,2 C 58 % 0 lf 1024,3 hPa 0,0 l/m 0 min 0 min 121 W/m 10,5 km/h (2 Bft)
03.06.2015 19:44 18,8 C 17,2 C 58 % 0 lf 1024,3 hPa 0,0 l/m 0 min 0 min 115 W/m 10,5 km/h (2 Bft)
03.06.2015 19:46 18,7 C 17,2 C 58 % 0 lf 1024,3 hPa 0,0 l/m 0 min 0 min 100 W/m 10,5 km/h (2 Bft)
03.06.2015 19:48 18,7 C 16,7 C 58 % 0 lf 1024,3 hPa 0,0 l/m 0 min 0 min 91 W/m 8,4 km/h (2 Bft)
03.06.2015 19:50 18,7 C 16,7 C 58 % 0 lf 1024,4 hPa 0,0 l/m 0 min 0 min 90 W/m 8,4 km/h (2 Bft)
03.06.2015 19:52 18,7 C 16,7 C 58 % 0 lf 1024,3 hPa 0,0 l/m 0 min 0 min 92 W/m 14,6 km/h (3 Bft)
03.06.2015 19:54 18,7 C 16,7 C 58 % 0 lf 1024,4 hPa 0,0 l/m 0 min 0 min 94 W/m 12,6 km/h (3 Bft)
03.06.2015 19:56 18,6 C 16,7 C 58 % 0 lf 1024,4 hPa 0,0 l/m 0 min 0 min 89 W/m 8,4 km/h (2 Bft)
03.06.2015 19:58 18,6 C 16,7 C 58 % 0 lf 1024,4 hPa 0,0 l/m 0 min 0 min 86 W/m 12,6 km/h (3 Bft)
03.06.2015 20:00 18,6 C 16,7 C 58 % 0 lf 1024,4 hPa 0,0 l/m 0 min 0 min 86 W/m 8,4 km/h (2 Bft)
03.06.2015 20:02 18,6 C 16,7 C 58 % 0 lf 1024,4 hPa 0,0 l/m 0 min 0 min 85 W/m 10,5 km/h (2 Bft)
03.06.2015 20:04 18,5 C 16,7 C 58 % 0 lf 1024,4 hPa 0,0 l/m 0 min 0 min 80 W/m 12,6 km/h (3 Bft)
03.06.2015 20:06 18,5 C 16,7 C 59 % 0 lf 1024,4 hPa 0,0 l/m 0 min 0 min 73 W/m 12,6 km/h (3 Bft)
03.06.2015 20:08 18,4 C 16,7 C 59 % 0 lf 1024,5 hPa 0,0 l/m 0 min 0 min 68 W/m 10,5 km/h (2 Bft)
03.06.2015 20:10 18,4 C 16,7 C 59 % 0 lf 1024,4 hPa 0,0 l/m 0 min 0 min 65 W/m 8,4 km/h (2 Bft)
03.06.2015 20:12 18,4 C 16,7 C 59 % 0 lf 1024,4 hPa 0,0 l/m 0 min 0 min 65 W/m 10,5 km/h (2 Bft)
03.06.2015 20:14 18,4 C 16,7 C 59 % 0 lf 1024,4 hPa 0,0 l/m 0 min 0 min 64 W/m 8,4 km/h (2 Bft)
03.06.2015 20:16 18,3 C 16,7 C 59 % 0 lf 1024,4 hPa 0,0 l/m 0 min 0 min 62 W/m 10,5 km/h (2 Bft)
03.06.2015 20:18 18,3 C 16,7 C 59 % 0 lf 1024,5 hPa 0,0 l/m 0 min 0 min 62 W/m 12,6 km/h (3 Bft)
03.06.2015 20:20 18,3 C 16,7 C 59 % 0 lf 1024,5 hPa 0,0 l/m 0 min 0 min 61 W/m 12,6 km/h (3 Bft)
03.06.2015 20:22 18,3 C 16,7 C 60 % 0 lf 1024,6 hPa 0,0 l/m 0 min 0 min 59 W/m 8,4 km/h (2 Bft)
03.06.2015 20:24 18,2 C 16,1 C 60 % 0 lf 1024,6 hPa 0,0 l/m 0 min 0 min 56 W/m 12,6 km/h (3 Bft)
03.06.2015 20:26 18,2 C 16,1 C 61 % 0 lf 1024,6 hPa 0,0 l/m 0 min 0 min 53 W/m 8,4 km/h (2 Bft)
03.06.2015 20:28 18,2 C 16,1 C 61 % 0 lf 1024,7 hPa 0,0 l/m 0 min 0 min 50 W/m 12,6 km/h (3 Bft)
03.06.2015 20:30 18,1 C 16,1 C 61 % 0 lf 1024,8 hPa 0,0 l/m 0 min 0 min 47 W/m 12,6 km/h (3 Bft)
03.06.2015 20:32 18,1 C 16,1 C 62 % 0 lf 1024,8 hPa 0,0 l/m 0 min 0 min 47 W/m 14,6 km/h (3 Bft)
03.06.2015 20:34 18,1 C 16,1 C 62 % 0 lf 1024,7 hPa 0,0 l/m 0 min 0 min 47 W/m 12,6 km/h (3 Bft)
03.06.2015 20:36 18,0 C 16,1 C 62 % 0 lf 1024,8 hPa 0,0 l/m 0 min 0 min 46 W/m 10,5 km/h (2 Bft)
03.06.2015 20:38 17,9 C 16,1 C 62 % 0 lf 1024,8 hPa 0,0 l/m 0 min 0 min 44 W/m 12,6 km/h (3 Bft)
03.06.2015 20:40 17,9 C 16,1 C 63 % 0 lf 1024,8 hPa 0,0 l/m 0 min 0 min 43 W/m 10,5 km/h (2 Bft)
03.06.2015 20:42 17,9 C 16,1 C 63 % 0 lf 1024,9 hPa 0,0 l/m 0 min 0 min 40 W/m 12,6 km/h (3 Bft)
03.06.2015 20:44 17,8 C 16,1 C 63 % 0 lf 1025,0 hPa 0,0 l/m 0 min 0 min 39 W/m 12,6 km/h (3 Bft)
03.06.2015 20:46 17,8 C 15,6 C 63 % 0 lf 1024,9 hPa 0,0 l/m 0 min 0 min 37 W/m 14,6 km/h (3 Bft)
03.06.2015 20:48 17,7 C 15,6 C 63 % 0 lf 1024,9 hPa 0,0 l/m 0 min 0 min 37 W/m 14,6 km/h (3 Bft)
03.06.2015 20:50 17,7 C 15,6 C 63 % 0 lf 1025,0 hPa 0,0 l/m 0 min 0 min 36 W/m 16,7 km/h (3 Bft)
03.06.2015 20:52 17,6 C 15,6 C 63 % 0 lf 1024,9 hPa 0,0 l/m 0 min 0 min 36 W/m 10,5 km/h (2 Bft)
03.06.2015 20:54 17,6 C 15,6 C 63 % 0 lf 1025,0 hPa 0,0 l/m 0 min 0 min 35 W/m 14,6 km/h (3 Bft)
03.06.2015 20:56 17,5 C 15,6 C 64 % 0 lf 1025,0 hPa 0,0 l/m 0 min 0 min 32 W/m 8,4 km/h (2 Bft)
03.06.2015 20:58 17,4 C 15,6 C 64 % 0 lf 1025,0 hPa 0,0 l/m 0 min 0 min 31 W/m 10,5 km/h (2 Bft)
03.06.2015 21:00 17,4 C 15,6 C 64 % 0 lf 1025,0 hPa 0,0 l/m 0 min 0 min 29 W/m 12,6 km/h (3 Bft)
03.06.2015 21:02 17,4 C 15,6 C 64 % 0 lf 1025,0 hPa 0,0 l/m 0 min 0 min 27 W/m 8,4 km/h (2 Bft)
03.06.2015 21:04 17,3 C 15,6 C 64 % 0 lf 1025,0 hPa 0,0 l/m 0 min 0 min 25 W/m 10,5 km/h (2 Bft)
03.06.2015 21:06 17,3 C 15,0 C 64 % 0 lf 1025,1 hPa 0,0 l/m 0 min 0 min 23 W/m 10,5 km/h (2 Bft)
03.06.2015 21:08 17,3 C 15,0 C 64 % 0 lf 1025,1 hPa 0,0 l/m 0 min 0 min 23 W/m 14,6 km/h (3 Bft)
03.06.2015 21:10 17,2 C 15,0 C 65 % 0 lf 1025,1 hPa 0,0 l/m 0 min 0 min 21 W/m 10,5 km/h (2 Bft)
03.06.2015 21:12 17,2 C 15,0 C 65 % 0 lf 1025,2 hPa 0,0 l/m 0 min 0 min 21 W/m 10,5 km/h (2 Bft)
03.06.2015 21:14 17,1 C 15,0 C 65 % 0 lf 1025,2 hPa 0,0 l/m 0 min 0 min 21 W/m 8,4 km/h (2 Bft)
03.06.2015 21:16 17,1 C 15,0 C 65 % 0 lf 1025,2 hPa 0,0 l/m 0 min 0 min 20 W/m 10,5 km/h (2 Bft)
03.06.2015 21:18 17,0 C 15,0 C 65 % 0 lf 1025,2 hPa 0,0 l/m 0 min 0 min 18 W/m 6,3 km/h (2 Bft)
03.06.2015 21:20 17,0 C 15,0 C 65 % 0 lf 1025,2 hPa 0,0 l/m 0 min 0 min 17 W/m 6,3 km/h (2 Bft)
03.06.2015 21:22 16,9 C 15,0 C 66 % 0 lf 1025,2 hPa 0,0 l/m 0 min 0 min 16 W/m 6,3 km/h (2 Bft)
03.06.2015 21:24 16,9 C 15,0 C 66 % 0 lf 1025,3 hPa 0,0 l/m 0 min 0 min 15 W/m 6,3 km/h (2 Bft)
03.06.2015 21:26 16,9 C 15,0 C 66 % 0 lf 1025,3 hPa 0,0 l/m 0 min 0 min 14 W/m 4,2 km/h (1 Bft)
03.06.2015 21:28 16,8 C 15,0 C 66 % 0 lf 1025,3 hPa 0,0 l/m 0 min 0 min 12 W/m 4,2 km/h (1 Bft)
03.06.2015 21:30 16,8 C 14,4 C 66 % 0 lf 1025,3 hPa 0,0 l/m 0 min 0 min 12 W/m 4,2 km/h (1 Bft)
03.06.2015 21:32 16,8 C 14,4 C 66 % 0 lf 1025,3 hPa 0,0 l/m 0 min 0 min 11 W/m 2,1 km/h (1 Bft)
03.06.2015 21:34 16,7 C 14,4 C 66 % 0 lf 1025,3 hPa 0,0 l/m 0 min 0 min 10 W/m 4,2 km/h (1 Bft)
03.06.2015 21:36 16,7 C 13,9 C 67 % 0 lf 1025,3 hPa 0,0 l/m 0 min 0 min 9 W/m 4,2 km/h (1 Bft)
03.06.2015 21:38 16,7 C 13,9 C 67 % 0 lf 1025,4 hPa 0,0 l/m 0 min 0 min 8 W/m 4,2 km/h (1 Bft)
03.06.2015 21:40 16,6 C 13,9 C 67 % 0 lf 1025,3 hPa 0,0 l/m 0 min 0 min 7 W/m 2,1 km/h (1 Bft)
03.06.2015 21:42 16,6 C 13,9 C 67 % 0 lf 1025,4 hPa 0,0 l/m 0 min 0 min 7 W/m 4,2 km/h (1 Bft)
03.06.2015 21:44 16,6 C 13,9 C 67 % 0 lf 1025,4 hPa 0,0 l/m 0 min 0 min 5 W/m 4,2 km/h (1 Bft)
03.06.2015 21:46 16,5 C 13,3 C 67 % 0 lf 1025,4 hPa 0,0 l/m 0 min 0 min 5 W/m 4,2 km/h (1 Bft)
03.06.2015 21:48 16,5 C 13,3 C 67 % 0 lf 1025,4 hPa 0,0 l/m 0 min 0 min 5 W/m 2,1 km/h (1 Bft)
03.06.2015 21:50 16,4 C 13,3 C 67 % 0 lf 1025,4 hPa 0,0 l/m 0 min 0 min 5 W/m 2,1 km/h (1 Bft)
03.06.2015 21:52 16,4 C 12,8 C 68 % 0 lf 1025,5 hPa 0,0 l/m 0 min 0 min 1 W/m 4,2 km/h (1 Bft)
03.06.2015 21:54 16,3 C 12,8 C 68 % 0 lf 1025,5 hPa 0,0 l/m 0 min 0 min 0 W/m 2,1 km/h (1 Bft)
03.06.2015 21:56 16,3 C 12,8 C 68 % 0 lf 1025,6 hPa 0,0 l/m 0 min 0 min 0 W/m 4,2 km/h (1 Bft)
03.06.2015 21:58 16,2 C 12,8 C 69 % 0 lf 1025,6 hPa 0,0 l/m 0 min 0 min 0 W/m 4,2 km/h (1 Bft)
03.06.2015 22:00 16,2 C 12,8 C 69 % 0 lf 1025,7 hPa 0,0 l/m 0 min 0 min 0 W/m 2,1 km/h (1 Bft)
03.06.2015 22:02 16,1 C 12,8 C 69 % 0 lf 1025,7 hPa 0,0 l/m 0 min 0 min 0 W/m 2,1 km/h (1 Bft)
03.06.2015 22:04 16,1 C 12,2 C 69 % 0 lf 1025,7 hPa 0,0 l/m 0 min 0 min 0 W/m 2,1 km/h (1 Bft)
03.06.2015 22:06 16,0 C 12,2 C 69 % 0 lf 1025,7 hPa 0,0 l/m 0 min 0 min 0 W/m 2,1 km/h (1 Bft)
03.06.2015 22:08 15,9 C 12,2 C 70 % 0 lf 1025,8 hPa 0,0 l/m 0 min 0 min 0 W/m 4,2 km/h (1 Bft)
03.06.2015 22:10 15,9 C 12,2 C 70 % 0 lf 1025,8 hPa 0,0 l/m 0 min 0 min 0 W/m 4,2 km/h (1 Bft)
03.06.2015 22:12 15,8 C 12,2 C 70 % 0 lf 1025,8 hPa 0,0 l/m 0 min 0 min 0 W/m 2,1 km/h (1 Bft)
03.06.2015 22:14 15,8 C 12,2 C 70 % 0 lf 1025,8 hPa 0,0 l/m 0 min 0 min 0 W/m 4,2 km/h (1 Bft)
03.06.2015 22:16 15,7 C 12,2 C 70 % 0 lf 1025,9 hPa 0,0 l/m 0 min 0 min 0 W/m 2,1 km/h (1 Bft)
03.06.2015 22:18 15,7 C 12,2 C 70 % 0 lf 1025,8 hPa 0,0 l/m 0 min 0 min 0 W/m 4,2 km/h (1 Bft)
03.06.2015 22:20 15,6 C 12,2 C 71 % 0 lf 1025,8 hPa 0,0 l/m 0 min 0 min 0 W/m 4,2 km/h (1 Bft)
03.06.2015 22:22 15,6 C 12,2 C 71 % 0 lf 1025,9 hPa 0,0 l/m 0 min 0 min 0 W/m 4,2 km/h (1 Bft)
03.06.2015 22:24 15,5 C 12,2 C 71 % 0 lf 1025,9 hPa 0,0 l/m 0 min 0 min 0 W/m 4,2 km/h (1 Bft)
03.06.2015 22:26 15,4 C 12,2 C 71 % 0 lf 1026,0 hPa 0,0 l/m 0 min 0 min 0 W/m 4,2 km/h (1 Bft)
03.06.2015 22:28 15,4 C 12,2 C 71 % 0 lf 1026,0 hPa 0,0 l/m 0 min 0 min 0 W/m 4,2 km/h (1 Bft)
03.06.2015 22:30 15,3 C 12,2 C 72 % 0 lf 1025,9 hPa 0,0 l/m 0 min 0 min 0 W/m 4,2 km/h (1 Bft)
03.06.2015 22:32 15,3 C 12,2 C 72 % 0 lf 1025,9 hPa 0,0 l/m 0 min 0 min 0 W/m 2,1 km/h (1 Bft)
03.06.2015 22:34 15,2 C 12,2 C 72 % 0 lf 1025,9 hPa 0,0 l/m 0 min 0 min 0 W/m 4,2 km/h (1 Bft)
03.06.2015 22:36 15,2 C 12,2 C 72 % 0 lf 1026,0 hPa 0,0 l/m 0 min 0 min 0 W/m 4,2 km/h (1 Bft)
03.06.2015 22:38 15,1 C 11,7 C 72 % 0 lf 1026,0 hPa 0,0 l/m 0 min 0 min 0 W/m 4,2 km/h (1 Bft)
03.06.2015 22:40 15,1 C 11,7 C 73 % 0 lf 1026,0 hPa 0,0 l/m 0 min 0 min 0 W/m 4,2 km/h (1 Bft)
03.06.2015 22:42 15,0 C 11,7 C 73 % 0 lf 1026,0 hPa 0,0 l/m 0 min 0 min 0 W/m 6,3 km/h (2 Bft)
03.06.2015 22:44 14,9 C 11,7 C 73 % 0 lf 1026,0 hPa 0,0 l/m 0 min 0 min 0 W/m 4,2 km/h (1 Bft)
03.06.2015 22:46 14,9 C 11,7 C 73 % 0 lf 1026,0 hPa 0,0 l/m 0 min 0 min 0 W/m 4,2 km/h (1 Bft)
03.06.2015 22:48 14,9 C 11,7 C 73 % 0 lf 1026,0 hPa 0,0 l/m 0 min 0 min 0 W/m 4,2 km/h (1 Bft)
03.06.2015 22:50 14,8 C 11,7 C 73 % 0 lf 1026,0 hPa 0,0 l/m 0 min 0 min 0 W/m 2,1 km/h (1 Bft)
03.06.2015 22:52 14,8 C 11,7 C 74 % 0 lf 1026,0 hPa 0,0 l/m 0 min 0 min 0 W/m 4,2 km/h (1 Bft)
03.06.2015 22:54 14,7 C 11,7 C 74 % 0 lf 1026,1 hPa 0,0 l/m 0 min 0 min 0 W/m 2,1 km/h (1 Bft)
03.06.2015 22:56 14,7 C 11,7 C 74 % 0 lf 1026,1 hPa 0,0 l/m 0 min 0 min 0 W/m 2,1 km/h (1 Bft)
03.06.2015 22:58 14,6 C 11,7 C 74 % 0 lf 1026,0 hPa 0,0 l/m 0 min 0 min 0 W/m 2,1 km/h (1 Bft)
03.06.2015 23:00 14,6 C 11,7 C 74 % 0 lf 1026,0 hPa 0,0 l/m 0 min 0 min 0 W/m 2,1 km/h (1 Bft)
03.06.2015 23:02 14,5 C 11,7 C 74 % 0 lf 1026,0 hPa 0,0 l/m 0 min 0 min 0 W/m 2,1 km/h (1 Bft)
03.06.2015 23:04 14,5 C 11,7 C 75 % 0 lf 1026,1 hPa 0,0 l/m 0 min 0 min 0 W/m 2,1 km/h (1 Bft)
03.06.2015 23:06 14,4 C 11,7 C 75 % 0 lf 1026,0 hPa 0,0 l/m 0 min 0 min 0 W/m 2,1 km/h (1 Bft)
03.06.2015 23:08 14,4 C 11,7 C 75 % 0 lf 1026,1 hPa 0,0 l/m 0 min 0 min 0 W/m 0,0 km/h (0 Bft)
03.06.2015 23:10 14,3 C 11,7 C 75 % 0 lf 1026,1 hPa 0,0 l/m 0 min 0 min 0 W/m 0,0 km/h (0 Bft)
03.06.2015 23:12 14,3 C 11,7 C 75 % 0 lf 1026,1 hPa 0,0 l/m 0 min 0 min 0 W/m 2,1 km/h (1 Bft)
03.06.2015 23:14 14,2 C 11,7 C 76 % 0 lf 1026,1 hPa 0,0 l/m 0 min 0 min 0 W/m 2,1 km/h (1 Bft)
03.06.2015 23:16 14,2 C 11,7 C 76 % 0 lf 1026,1 hPa 0,0 l/m 0 min 0 min 0 W/m 2,1 km/h (1 Bft)
03.06.2015 23:18 14,2 C 11,7 C 76 % 0 lf 1026,1 hPa 0,0 l/m 0 min 0 min 0 W/m 2,1 km/h (1 Bft)
03.06.2015 23:20 14,2 C 11,7 C 76 % 0 lf 1026,2 hPa 0,0 l/m 0 min 0 min 0 W/m 2,1 km/h (1 Bft)
03.06.2015 23:22 14,2 C 11,7 C 76 % 0 lf 1026,2 hPa 0,0 l/m 0 min 0 min 0 W/m 2,1 km/h (1 Bft)
03.06.2015 23:24 14,2 C 11,1 C 76 % 0 lf 1026,2 hPa 0,0 l/m 0 min 0 min 0 W/m 2,1 km/h (1 Bft)
03.06.2015 23:26 14,1 C 11,1 C 77 % 0 lf 1026,2 hPa 0,0 l/m 0 min 0 min 0 W/m 2,1 km/h (1 Bft)
03.06.2015 23:28 14,1 C 11,1 C 77 % 0 lf 1026,3 hPa 0,0 l/m 0 min 0 min 0 W/m 2,1 km/h (1 Bft)
03.06.2015 23:30 14,0 C 11,1 C 77 % 0 lf 1026,3 hPa 0,0 l/m 0 min 0 min 0 W/m 2,1 km/h (1 Bft)
03.06.2015 23:32 14,0 C 11,1 C 77 % 0 lf 1026,2 hPa 0,0 l/m 0 min 0 min 0 W/m 2,1 km/h (1 Bft)
03.06.2015 23:34 13,9 C 11,1 C 77 % 0 lf 1026,3 hPa 0,0 l/m 0 min 0 min 0 W/m 2,1 km/h (1 Bft)
03.06.2015 23:36 13,9 C 11,1 C 77 % 0 lf 1026,3 hPa 0,0 l/m 0 min 0 min 0 W/m 2,1 km/h (1 Bft)
03.06.2015 23:38 13,8 C 11,1 C 77 % 0 lf 1026,3 hPa 0,0 l/m 0 min 0 min 0 W/m 2,1 km/h (1 Bft)
03.06.2015 23:40 13,8 C 11,1 C 78 % 0 lf 1026,3 hPa 0,0 l/m 0 min 0 min 0 W/m 2,1 km/h (1 Bft)
03.06.2015 23:42 13,7 C 11,1 C 78 % 0 lf 1026,3 hPa 0,0 l/m 0 min 0 min 0 W/m 0,0 km/h (0 Bft)
03.06.2015 23:44 13,7 C 11,1 C 78 % 0 lf 1026,3 hPa 0,0 l/m 0 min 0 min 0 W/m 2,1 km/h (1 Bft)
03.06.2015 23:46 13,7 C 10,6 C 78 % 0 lf 1026,3 hPa 0,0 l/m 0 min 0 min 0 W/m 2,1 km/h (1 Bft)
03.06.2015 23:48 13,6 C 10,6 C 78 % 0 lf 1026,3 hPa 0,0 l/m 0 min 0 min 0 W/m 2,1 km/h (1 Bft)
03.06.2015 23:50 13,6 C 10,6 C 78 % 0 lf 1026,3 hPa 0,0 l/m 0 min 0 min 0 W/m 2,1 km/h (1 Bft)
03.06.2015 23:52 13,6 C 10,6 C 78 % 0 lf 1026,3 hPa 0,0 l/m 0 min 0 min 0 W/m 2,1 km/h (1 Bft)
03.06.2015 23:54 13,5 C 10,6 C 79 % 0 lf 1026,3 hPa 0,0 l/m 0 min 0 min 0 W/m 2,1 km/h (1 Bft)
03.06.2015 23:56 13,4 C 10,6 C 79 % 0 lf 1026,3 hPa 0,0 l/m 0 min 0 min 0 W/m 4,2 km/h (1 Bft)
03.06.2015 23:58 13,4 C 10,6 C 79 % 0 lf 1026,3 hPa 0,0 l/m 0 min 0 min 0 W/m 2,1 km/h (1 Bft)
_ Min-Zeit 23:56 23:46 15:08 00:00 00:24 - - - - 23:08
Minimum _ 13,4 C 10,6 C 52 % 0 lf 1013,2 hPa - - - - 0,0 km/h (0 Bft)
_ Max-Zeit 16:20 12:52 05:40 05:10 23:28 05:16 07:14 05:02 12:28 01:48
Maximum _ 20,9 C 19,4 C 89 % 15 lf 1026,3 hPa 0,2 l/m 2 min 2 min 1131 W/m 41,8 km/h
W-SW (6 Bft)
Durchschnitt _ 17,6 C 15,4 C 69 % 1 lf 1020,1 hPa #0,6 l/m #6:54 h #30 min. 297 W/m 18,6 km/h (3 Bft)
© 2015 W. Hausmann